Wetterdaten: Dienstag, 09.08.2016
Datum Zeit Temp. A. Feuchte A. Luftdruck Regen Wind Richtung Richtung Sonnenschein ET UV Solar Taupunkt Windchill Windben Empfang
09.08.2016 00:00 18,5 C 81 % 1016,8 hPa 0,0 l/m 3,8 km/h (1 Bft) S 189 0 min 0,000 mm 0,0 UV-I 0 W/m 15,2 C 18,5 C 6,4 km/h (2 Bft) 97,87 %
09.08.2016 00:02 18,4 C 81 % 1016,8 hPa 0,0 l/m 4,4 km/h (1 Bft) S-SW 197 0 min 0,000 mm 0,0 UV-I 0 W/m 15,1 C 18,4 C 6,4 km/h (2 Bft) 100,00 %
09.08.2016 00:04 18,4 C 81 % 1016,8 hPa 0,0 l/m 4,7 km/h (1 Bft) S-SW 205 0 min 0,000 mm 0,0 UV-I 0 W/m 15,1 C 18,4 C 6,4 km/h (2 Bft) 100,00 %
09.08.2016 00:06 18,3 C 81 % 1016,8 hPa 0,0 l/m 3,7 km/h (1 Bft) S-SW 205 0 min 0,000 mm 0,0 UV-I 0 W/m 15,0 C 18,3 C 6,4 km/h (2 Bft) 100,00 %
09.08.2016 00:08 18,2 C 82 % 1016,7 hPa 0,0 l/m 5,1 km/h (1 Bft) S 188 0 min 0,000 mm 0,0 UV-I 0 W/m 15,1 C 18,2 C 6,4 km/h (2 Bft) 98,21 %
09.08.2016 00:10 18,2 C 82 % 1016,8 hPa 0,0 l/m 5,4 km/h (1 Bft) S 191 0 min 0,000 mm 0,0 UV-I 0 W/m 15,1 C 18,2 C 6,4 km/h (2 Bft) 100,00 %
09.08.2016 00:12 18,1 C 82 % 1016,8 hPa 0,0 l/m 3,6 km/h (1 Bft) S-SW 192 0 min 0,000 mm 0,0 UV-I 0 W/m 15,0 C 18,1 C 6,4 km/h (2 Bft) 98,00 %
09.08.2016 00:14 18,1 C 82 % 1016,8 hPa 0,0 l/m 4,9 km/h (1 Bft) S-SW 200 0 min 0,000 mm 0,0 UV-I 0 W/m 15,0 C 18,1 C 6,4 km/h (2 Bft) 100,00 %
09.08.2016 00:16 18,0 C 82 % 1016,8 hPa 0,0 l/m 4,8 km/h (1 Bft) S-SW 201 0 min 0,000 mm 0,0 UV-I 0 W/m 14,9 C 18,0 C 6,4 km/h (2 Bft) 100,00 %
09.08.2016 00:18 17,9 C 83 % 1016,7 hPa 0,0 l/m 5,3 km/h (1 Bft) S-SW 202 0 min 0,000 mm 0,0 UV-I 0 W/m 15,0 C 17,9 C 8,0 km/h (2 Bft) 97,87 %
09.08.2016 00:20 17,9 C 83 % 1016,7 hPa 0,0 l/m 5,3 km/h (1 Bft) S-SW 203 0 min 0,000 mm 0,0 UV-I 0 W/m 15,0 C 17,9 C 6,4 km/h (2 Bft) 100,00 %
09.08.2016 00:22 17,9 C 83 % 1016,7 hPa 0,0 l/m 5,3 km/h (1 Bft) S-SW 203 0 min 0,000 mm 0,0 UV-I 0 W/m 15,0 C 17,9 C 6,4 km/h (2 Bft) 100,00 %
09.08.2016 00:24 17,8 C 83 % 1016,8 hPa 0,0 l/m 6,4 km/h (2 Bft) S-SW 196 0 min 0,000 mm 0,0 UV-I 0 W/m 14,9 C 17,8 C 8,0 km/h (2 Bft) 100,00 %
09.08.2016 00:26 17,8 C 83 % 1016,7 hPa 0,0 l/m 7,0 km/h (2 Bft) S-SW 197 0 min 0,000 mm 0,0 UV-I 0 W/m 14,9 C 17,5 C 9,7 km/h (2 Bft) 100,00 %
09.08.2016 00:28 17,8 C 83 % 1016,8 hPa 0,0 l/m 5,4 km/h (1 Bft) S-SW 196 0 min 0,000 mm 0,0 UV-I 0 W/m 14,9 C 17,8 C 8,0 km/h (2 Bft) 98,00 %
09.08.2016 00:30 17,8 C 83 % 1016,7 hPa 0,0 l/m 4,7 km/h (1 Bft) S-SW 196 0 min 0,000 mm 0,0 UV-I 0 W/m 14,9 C 17,8 C 6,4 km/h (2 Bft) 100,00 %
09.08.2016 00:32 17,8 C 83 % 1016,8 hPa 0,0 l/m 4,5 km/h (1 Bft) S-SW 196 0 min 0,000 mm 0,0 UV-I 0 W/m 14,9 C 17,8 C 6,4 km/h (2 Bft) 97,56 %
09.08.2016 00:34 17,8 C 83 % 1016,7 hPa 0,0 l/m 4,4 km/h (1 Bft) S-SW 197 0 min 0,000 mm 0,0 UV-I 0 W/m 14,9 C 17,8 C 6,4 km/h (2 Bft) 100,00 %
09.08.2016 00:36 17,8 C 83 % 1016,8 hPa 0,0 l/m 3,9 km/h (1 Bft) S-SW 198 0 min 0,000 mm 0,0 UV-I 0 W/m 14,9 C 17,8 C 6,4 km/h (2 Bft) 100,00 %
09.08.2016 00:38 17,7 C 83 % 1016,7 hPa 0,0 l/m 4,5 km/h (1 Bft) S-SW 198 0 min 0,000 mm 0,0 UV-I 0 W/m 14,8 C 17,7 C 6,4 km/h (2 Bft) 100,00 %
09.08.2016 00:40 17,7 C 83 % 1016,7 hPa 0,0 l/m 4,1 km/h (1 Bft) S-SW 198 0 min 0,000 mm 0,0 UV-I 0 W/m 14,8 C 17,7 C 6,4 km/h (2 Bft) 100,00 %
09.08.2016 00:42 17,7 C 83 % 1016,7 hPa 0,0 l/m 3,7 km/h (1 Bft) S-SW 198 0 min 0,000 mm 0,0 UV-I 0 W/m 14,8 C 17,7 C 4,8 km/h (1 Bft) 100,00 %
09.08.2016 00:44 17,7 C 84 % 1016,7 hPa 0,0 l/m 3,5 km/h (1 Bft) S-SW 198 0 min 0,000 mm 0,0 UV-I 0 W/m 15,0 C 17,7 C 4,8 km/h (1 Bft) 100,00 %
09.08.2016 00:46 17,6 C 84 % 1016,6 hPa 0,0 l/m 3,3 km/h (1 Bft) S-SW 198 0 min 0,000 mm 0,0 UV-I 0 W/m 14,9 C 17,6 C 4,8 km/h (1 Bft) 100,00 %
09.08.2016 00:48 17,6 C 84 % 1016,7 hPa 0,0 l/m 3,7 km/h (1 Bft) S-SW 198 0 min 0,000 mm 0,0 UV-I 0 W/m 14,9 C 17,6 C 6,4 km/h (2 Bft) 100,00 %
09.08.2016 00:50 17,6 C 84 % 1016,7 hPa 0,0 l/m 3,4 km/h (1 Bft) S-SW 198 0 min 0,000 mm 0,0 UV-I 0 W/m 14,9 C 17,6 C 4,8 km/h (1 Bft) 100,00 %
09.08.2016 00:52 17,6 C 84 % 1016,6 hPa 0,0 l/m 3,5 km/h (1 Bft) S-SW 198 0 min 0,000 mm 0,0 UV-I 0 W/m 14,9 C 17,6 C 4,8 km/h (1 Bft) 100,00 %
09.08.2016 00:54 17,5 C 84 % 1016,6 hPa 0,0 l/m 2,8 km/h (1 Bft) S-SW 198 0 min 0,000 mm 0,0 UV-I 0 W/m 14,8 C 17,5 C 6,4 km/h (2 Bft) 100,00 %
09.08.2016 00:56 17,4 C 84 % 1016,6 hPa 0,0 l/m 3,3 km/h (1 Bft) S-SW 198 0 min 0,000 mm 0,0 UV-I 0 W/m 14,7 C 17,4 C 4,8 km/h (1 Bft) 100,00 %
09.08.2016 00:58 17,4 C 84 % 1016,5 hPa 0,0 l/m 3,3 km/h (1 Bft) S-SW 198 0 min 0,000 mm 0,0 UV-I 0 W/m 14,7 C 17,4 C 4,8 km/h (1 Bft) 100,00 %
09.08.2016 01:00 17,4 C 84 % 1016,5 hPa 0,0 l/m 3,3 km/h (1 Bft) S-SW 198 0 min 0,000 mm 0,0 UV-I 0 W/m 14,7 C 17,4 C 4,8 km/h (1 Bft) 100,00 %
09.08.2016 01:02 17,4 C 84 % 1016,5 hPa 0,0 l/m 4,0 km/h (1 Bft) S-SW 194 0 min 0,025 mm 0,0 UV-I 0 W/m 14,7 C 17,4 C 6,4 km/h (2 Bft) 100,00 %
09.08.2016 01:04 17,3 C 85 % 1016,5 hPa 0,0 l/m 4,2 km/h (1 Bft) S-SW 205 0 min 0,000 mm 0,0 UV-I 0 W/m 14,8 C 17,3 C 6,4 km/h (2 Bft) 100,00 %
09.08.2016 01:06 17,3 C 85 % 1016,5 hPa 0,0 l/m 4,4 km/h (1 Bft) S-SW 202 0 min 0,000 mm 0,0 UV-I 0 W/m 14,8 C 17,3 C 6,4 km/h (2 Bft) 100,00 %
09.08.2016 01:08 17,2 C 85 % 1016,5 hPa 0,0 l/m 4,0 km/h (1 Bft) S-SW 202 0 min 0,000 mm 0,0 UV-I 0 W/m 14,7 C 17,2 C 6,4 km/h (2 Bft) 100,00 %
09.08.2016 01:10 17,2 C 85 % 1016,5 hPa 0,0 l/m 3,3 km/h (1 Bft) S-SW 202 0 min 0,000 mm 0,0 UV-I 0 W/m 14,7 C 17,2 C 4,8 km/h (1 Bft) 100,00 %
09.08.2016 01:12 17,2 C 85 % 1016,4 hPa 0,0 l/m 4,6 km/h (1 Bft) S-SW 206 0 min 0,000 mm 0,0 UV-I 0 W/m 14,7 C 17,2 C 8,0 km/h (2 Bft) 100,00 %
09.08.2016 01:14 17,2 C 85 % 1016,4 hPa 0,0 l/m 4,7 km/h (1 Bft) S-SW 201 0 min 0,000 mm 0,0 UV-I 0 W/m 14,7 C 17,2 C 8,0 km/h (2 Bft) 97,44 %
09.08.2016 01:16 17,2 C 85 % 1016,4 hPa 0,0 l/m 3,8 km/h (1 Bft) S-SW 200 0 min 0,000 mm 0,0 UV-I 0 W/m 14,7 C 17,2 C 4,8 km/h (1 Bft) 94,23 %
09.08.2016 01:18 17,2 C 85 % 1016,4 hPa 0,0 l/m 3,3 km/h (1 Bft) S-SW 200 0 min 0,000 mm 0,0 UV-I 0 W/m 14,7 C 17,2 C 4,8 km/h (1 Bft) 97,92 %
09.08.2016 01:20 17,2 C 85 % 1016,4 hPa 0,0 l/m 1,2 km/h (1 Bft) S-SW 200 0 min 0,000 mm 0,0 UV-I 0 W/m 14,7 C 17,2 C 3,2 km/h (1 Bft) 98,08 %
09.08.2016 01:22 17,3 C 85 % 1016,4 hPa 0,0 l/m 2,8 km/h (1 Bft) S-SW 198 0 min 0,000 mm 0,0 UV-I 0 W/m 14,8 C 17,3 C 4,8 km/h (1 Bft) 94,87 %
09.08.2016 01:24 17,3 C 84 % 1016,4 hPa 0,0 l/m 2,9 km/h (1 Bft) S-SW 197 0 min 0,000 mm 0,0 UV-I 0 W/m 14,6 C 17,3 C 6,4 km/h (2 Bft) 94,00 %
09.08.2016 01:26 17,3 C 84 % 1016,3 hPa 0,0 l/m 2,2 km/h (1 Bft) S 190 0 min 0,000 mm 0,0 UV-I 0 W/m 14,6 C 17,3 C 4,8 km/h (1 Bft) 98,00 %
09.08.2016 01:28 17,4 C 84 % 1016,4 hPa 0,0 l/m 2,6 km/h (1 Bft) S 190 0 min 0,000 mm 0,0 UV-I 0 W/m 14,7 C 17,4 C 4,8 km/h (1 Bft) 96,00 %
09.08.2016 01:30 17,4 C 83 % 1016,3 hPa 0,0 l/m 2,5 km/h (1 Bft) S 190 0 min 0,000 mm 0,0 UV-I 0 W/m 14,5 C 17,4 C 6,4 km/h (2 Bft) 97,14 %
09.08.2016 01:32 17,4 C 83 % 1016,3 hPa 0,0 l/m 3,4 km/h (1 Bft) S 189 0 min 0,000 mm 0,0 UV-I 0 W/m 14,5 C 17,4 C 6,4 km/h (2 Bft) 95,74 %
09.08.2016 01:34 17,4 C 83 % 1016,3 hPa 0,0 l/m 1,4 km/h (1 Bft) S 189 0 min 0,000 mm 0,0 UV-I 0 W/m 14,5 C 17,4 C 3,2 km/h (1 Bft) 97,87 %
09.08.2016 01:36 17,4 C 83 % 1016,3 hPa 0,0 l/m 3,3 km/h (1 Bft) S 189 0 min 0,000 mm 0,0 UV-I 0 W/m 14,5 C 17,4 C 6,4 km/h (2 Bft) 97,87 %
09.08.2016 01:38 17,4 C 83 % 1016,4 hPa 0,0 l/m 3,2 km/h (1 Bft) S 190 0 min 0,000 mm 0,0 UV-I 0 W/m 14,5 C 17,4 C 4,8 km/h (1 Bft) 97,87 %
09.08.2016 01:40 17,3 C 83 % 1016,4 hPa 0,0 l/m 2,7 km/h (1 Bft) S 190 0 min 0,000 mm 0,0 UV-I 0 W/m 14,4 C 17,3 C 4,8 km/h (1 Bft) 96,23 %
09.08.2016 01:42 17,3 C 84 % 1016,5 hPa 0,0 l/m 4,4 km/h (1 Bft) S-SW 199 0 min 0,000 mm 0,0 UV-I 0 W/m 14,6 C 17,3 C 6,4 km/h (2 Bft) 95,74 %
09.08.2016 01:44 17,1 C 84 % 1016,5 hPa 0,0 l/m 4,6 km/h (1 Bft) S-SW 213 0 min 0,000 mm 0,0 UV-I 0 W/m 14,4 C 17,1 C 8,0 km/h (2 Bft) 97,37 %
09.08.2016 01:46 16,9 C 85 % 1016,5 hPa 0,0 l/m 4,9 km/h (1 Bft) S-SW 213 0 min 0,000 mm 0,0 UV-I 0 W/m 14,4 C 16,9 C 8,0 km/h (2 Bft) 98,11 %
09.08.2016 01:48 16,8 C 86 % 1016,5 hPa 0,0 l/m 5,5 km/h (1 Bft) SW 234 0 min 0,000 mm 0,0 UV-I 0 W/m 14,4 C 16,8 C 8,0 km/h (2 Bft) 97,87 %
09.08.2016 01:50 16,8 C 86 % 1016,5 hPa 0,0 l/m 5,4 km/h (1 Bft) SW 233 0 min 0,000 mm 0,0 UV-I 0 W/m 14,4 C 16,8 C 6,4 km/h (2 Bft) 98,00 %
09.08.2016 01:52 16,8 C 86 % 1016,5 hPa 0,0 l/m 4,9 km/h (1 Bft) SW 219 0 min 0,000 mm 0,0 UV-I 0 W/m 14,4 C 16,8 C 6,4 km/h (2 Bft) 100,00 %
09.08.2016 01:54 16,9 C 86 % 1016,5 hPa 0,0 l/m 5,2 km/h (1 Bft) SW 223 0 min 0,000 mm 0,0 UV-I 0 W/m 14,5 C 16,9 C 8,0 km/h (2 Bft) 100,00 %
09.08.2016 01:56 16,9 C 85 % 1016,5 hPa 0,0 l/m 3,8 km/h (1 Bft) SW 219 0 min 0,000 mm 0,0 UV-I 0 W/m 14,4 C 16,9 C 6,4 km/h (2 Bft) 98,11 %
09.08.2016 01:58 16,9 C 85 % 1016,4 hPa 0,0 l/m 4,8 km/h (1 Bft) SW 218 0 min 0,000 mm 0,0 UV-I 0 W/m 14,4 C 16,9 C 6,4 km/h (2 Bft) 100,00 %
09.08.2016 02:00 17,0 C 85 % 1016,4 hPa 0,0 l/m 5,8 km/h (2 Bft) S-SW 207 0 min 0,000 mm 0,0 UV-I 0 W/m 14,5 C 17,0 C 8,0 km/h (2 Bft) 96,00 %
09.08.2016 02:02 17,1 C 85 % 1016,4 hPa 0,0 l/m 6,0 km/h (2 Bft) S-SW 210 0 min 0,000 mm 0,0 UV-I 0 W/m 14,6 C 17,1 C 8,0 km/h (2 Bft) 100,00 %
09.08.2016 02:04 17,2 C 84 % 1016,4 hPa 0,0 l/m 5,0 km/h (1 Bft) SW 219 0 min 0,000 mm 0,0 UV-I 0 W/m 14,5 C 17,2 C 6,4 km/h (2 Bft) 98,11 %
09.08.2016 02:06 17,2 C 84 % 1016,4 hPa 0,0 l/m 5,9 km/h (2 Bft) SW 219 0 min 0,000 mm 0,0 UV-I 0 W/m 14,5 C 17,2 C 8,0 km/h (2 Bft) 100,00 %
09.08.2016 02:08 17,3 C 84 % 1016,3 hPa 0,0 l/m 5,0 km/h (1 Bft) S-SW 204 0 min 0,000 mm 0,0 UV-I 0 W/m 14,6 C 17,3 C 8,0 km/h (2 Bft) 100,00 %
09.08.2016 02:10 17,3 C 84 % 1016,3 hPa 0,0 l/m 5,7 km/h (1 Bft) S 183 0 min 0,000 mm 0,0 UV-I 0 W/m 14,6 C 17,3 C 9,7 km/h (2 Bft) 100,00 %
09.08.2016 02:12 17,3 C 84 % 1016,3 hPa 0,0 l/m 4,2 km/h (1 Bft) S 183 0 min 0,000 mm 0,0 UV-I 0 W/m 14,6 C 17,3 C 6,4 km/h (2 Bft) 100,00 %
09.08.2016 02:14 17,3 C 84 % 1016,3 hPa 0,0 l/m 1,9 km/h (1 Bft) S 183 0 min 0,000 mm 0,0 UV-I 0 W/m 14,6 C 17,3 C 3,2 km/h (1 Bft) 100,00 %
09.08.2016 02:16 17,3 C 84 % 1016,3 hPa 0,0 l/m 2,6 km/h (1 Bft) S 183 0 min 0,000 mm 0,0 UV-I 0 W/m 14,6 C 17,3 C 3,2 km/h (1 Bft) 100,00 %
09.08.2016 02:18 17,3 C 84 % 1016,3 hPa 0,0 l/m 3,4 km/h (1 Bft) S 184 0 min 0,000 mm 0,0 UV-I 0 W/m 14,6 C 17,3 C 6,4 km/h (2 Bft) 100,00 %
09.08.2016 02:20 17,3 C 84 % 1016,4 hPa 0,0 l/m 4,5 km/h (1 Bft) S-SW 213 0 min 0,000 mm 0,0 UV-I 0 W/m 14,6 C 17,3 C 6,4 km/h (2 Bft) 97,37 %
09.08.2016 02:22 17,3 C 84 % 1016,4 hPa 0,0 l/m 6,0 km/h (2 Bft) W-SW 238 0 min 0,000 mm 0,0 UV-I 0 W/m 14,6 C 17,3 C 9,7 km/h (2 Bft) 100,00 %
09.08.2016 02:24 17,2 C 84 % 1016,5 hPa 0,0 l/m 6,8 km/h (2 Bft) SW 225 0 min 0,000 mm 0,0 UV-I 0 W/m 14,5 C 17,0 C 9,7 km/h (2 Bft) 100,00 %
09.08.2016 02:26 17,1 C 85 % 1016,6 hPa 0,0 l/m 6,6 km/h (2 Bft) SW 229 0 min 0,000 mm 0,0 UV-I 0 W/m 14,6 C 17,0 C 9,7 km/h (2 Bft) 100,00 %
09.08.2016 02:28 17,0 C 85 % 1016,6 hPa 0,0 l/m 6,6 km/h (2 Bft) SW 236 0 min 0,000 mm 0,0 UV-I 0 W/m 14,5 C 16,9 C 9,7 km/h (2 Bft) 100,00 %
09.08.2016 02:30 16,9 C 85 % 1016,6 hPa 0,0 l/m 9,1 km/h (2 Bft) W-SW 237 0 min 0,000 mm 0,0 UV-I 0 W/m 14,4 C 15,6 C 14,5 km/h (3 Bft) 100,00 %
09.08.2016 02:32 16,9 C 86 % 1016,6 hPa 0,0 l/m 8,2 km/h (2 Bft) S-SW 195 0 min 0,000 mm 0,0 UV-I 0 W/m 14,5 C 16,0 C 14,5 km/h (3 Bft) 100,00 %
09.08.2016 02:34 16,9 C 86 % 1016,6 hPa 0,0 l/m 8,5 km/h (2 Bft) W-SW 244 0 min 0,000 mm 0,0 UV-I 0 W/m 14,5 C 15,9 C 14,5 km/h (3 Bft) 100,00 %
09.08.2016 02:36 17,0 C 86 % 1016,6 hPa 0,0 l/m 9,5 km/h (2 Bft) W 261 0 min 0,000 mm 0,0 UV-I 0 W/m 14,6 C 15,5 C 14,5 km/h (3 Bft) 98,18 %
09.08.2016 02:38 17,1 C 86 % 1016,5 hPa 0,0 l/m 8,8 km/h (2 Bft) S-SW 204 0 min 0,000 mm 0,0 UV-I 0 W/m 14,7 C 15,9 C 16,1 km/h (3 Bft) 100,00 %
09.08.2016 02:40 17,2 C 86 % 1016,5 hPa 0,0 l/m 6,5 km/h (2 Bft) S 188 0 min 0,000 mm 0,0 UV-I 0 W/m 14,8 C 17,2 C 8,0 km/h (2 Bft) 97,56 %
09.08.2016 02:42 17,3 C 86 % 1016,5 hPa 0,0 l/m 7,2 km/h (2 Bft) S-SW 203 0 min 0,000 mm 0,0 UV-I 0 W/m 14,9 C 16,9 C 9,7 km/h (2 Bft) 98,31 %
09.08.2016 02:44 17,3 C 86 % 1016,5 hPa 0,0 l/m 7,0 km/h (2 Bft) S-SW 198 0 min 0,000 mm 0,0 UV-I 0 W/m 14,9 C 17,0 C 9,7 km/h (2 Bft) 100,00 %
09.08.2016 02:46 17,4 C 86 % 1016,5 hPa 0,0 l/m 6,8 km/h (2 Bft) S-SW 198 0 min 0,000 mm 0,0 UV-I 0 W/m 15,0 C 17,2 C 9,7 km/h (2 Bft) 100,00 %
09.08.2016 02:48 17,4 C 86 % 1016,5 hPa 0,0 l/m 7,3 km/h (2 Bft) S-SW 205 0 min 0,000 mm 0,0 UV-I 0 W/m 15,0 C 17,0 C 9,7 km/h (2 Bft) 97,87 %
09.08.2016 02:50 17,5 C 86 % 1016,6 hPa 0,0 l/m 6,8 km/h (2 Bft) S-SW 212 0 min 0,000 mm 0,0 UV-I 0 W/m 15,1 C 17,3 C 9,7 km/h (2 Bft) 100,00 %
09.08.2016 02:52 17,5 C 85 % 1016,6 hPa 0,0 l/m 9,9 km/h (2 Bft) SW 214 0 min 0,000 mm 0,0 UV-I 0 W/m 14,9 C 15,9 C 12,9 km/h (3 Bft) 100,00 %
09.08.2016 02:54 17,4 C 86 % 1016,5 hPa 0,0 l/m 8,4 km/h (2 Bft) S-SW 198 0 min 0,000 mm 0,0 UV-I 0 W/m 15,0 C 16,4 C 12,9 km/h (3 Bft) 100,00 %
09.08.2016 02:56 17,5 C 86 % 1016,5 hPa 0,0 l/m 9,6 km/h (2 Bft) S-SW 192 0 min 0,000 mm 0,0 UV-I 0 W/m 15,1 C 16,0 C 12,9 km/h (3 Bft) 100,00 %
09.08.2016 02:58 17,6 C 86 % 1016,5 hPa 0,0 l/m 9,6 km/h (2 Bft) S 191 0 min 0,000 mm 0,0 UV-I 0 W/m 15,2 C 16,1 C 12,9 km/h (3 Bft) 100,00 %
09.08.2016 03:00 17,6 C 86 % 1016,5 hPa 0,0 l/m 8,6 km/h (2 Bft) SW 218 0 min 0,026 mm 0,0 UV-I 0 W/m 15,2 C 16,6 C 12,9 km/h (3 Bft) 95,74 %
09.08.2016 03:02 17,6 C 85 % 1016,5 hPa 0,0 l/m 6,5 km/h (2 Bft) SW 217 0 min 0,000 mm 0,0 UV-I 0 W/m 15,0 C 17,6 C 11,3 km/h (2 Bft) 100,00 %
09.08.2016 03:04 17,6 C 85 % 1016,5 hPa 0,0 l/m 7,3 km/h (2 Bft) S-SW 208 0 min 0,000 mm 0,0 UV-I 0 W/m 15,0 C 17,2 C 11,3 km/h (2 Bft) 100,00 %
09.08.2016 03:06 17,6 C 85 % 1016,5 hPa 0,0 l/m 6,3 km/h (2 Bft) SW 233 0 min 0,000 mm 0,0 UV-I 0 W/m 15,0 C 17,6 C 9,7 km/h (2 Bft) 100,00 %
09.08.2016 03:08 17,5 C 86 % 1016,5 hPa 0,0 l/m 5,1 km/h (1 Bft) S-SW 211 0 min 0,000 mm 0,0 UV-I 0 W/m 15,1 C 17,5 C 8,0 km/h (2 Bft) 100,00 %
09.08.2016 03:10 17,4 C 86 % 1016,5 hPa 0,0 l/m 5,7 km/h (1 Bft) SW 220 0 min 0,000 mm 0,0 UV-I 0 W/m 15,0 C 17,4 C 9,7 km/h (2 Bft) 100,00 %
09.08.2016 03:12 17,4 C 86 % 1016,5 hPa 0,0 l/m 5,4 km/h (1 Bft) S-SW 211 0 min 0,000 mm 0,0 UV-I 0 W/m 15,0 C 17,4 C 8,0 km/h (2 Bft) 100,00 %
09.08.2016 03:14 17,4 C 86 % 1016,5 hPa 0,0 l/m 5,9 km/h (2 Bft) SW 229 0 min 0,000 mm 0,0 UV-I 0 W/m 15,0 C 17,4 C 8,0 km/h (2 Bft) 100,00 %
09.08.2016 03:16 17,5 C 86 % 1016,6 hPa 0,0 l/m 6,0 km/h (2 Bft) W-SW 257 0 min 0,000 mm 0,0 UV-I 0 W/m 15,1 C 17,5 C 8,0 km/h (2 Bft) 100,00 %
09.08.2016 03:18 17,6 C 86 % 1016,6 hPa 0,0 l/m 7,2 km/h (2 Bft) W-SW 253 0 min 0,000 mm 0,0 UV-I 0 W/m 15,2 C 17,2 C 11,3 km/h (2 Bft) 94,74 %
09.08.2016 03:20 17,7 C 86 % 1016,6 hPa 0,0 l/m 6,9 km/h (2 Bft) W-SW 237 0 min 0,000 mm 0,0 UV-I 0 W/m 15,3 C 17,5 C 11,3 km/h (2 Bft) 98,04 %
09.08.2016 03:22 17,9 C 86 % 1016,7 hPa 0,0 l/m 10,3 km/h (2 Bft) W-SW 257 0 min 0,000 mm 0,0 UV-I 0 W/m 15,5 C 16,2 C 16,1 km/h (3 Bft) 98,11 %
09.08.2016 03:24 18,1 C 85 % 1016,7 hPa 0,0 l/m 10,1 km/h (2 Bft) W-SW 255 0 min 0,000 mm 0,0 UV-I 0 W/m 15,5 C 16,5 C 14,5 km/h (3 Bft) 97,56 %
09.08.2016 03:26 18,1 C 85 % 1016,7 hPa 0,0 l/m 7,2 km/h (2 Bft) W-SW 254 0 min 0,000 mm 0,0 UV-I 0 W/m 15,5 C 17,7 C 12,9 km/h (3 Bft) 98,11 %
09.08.2016 03:28 18,2 C 85 % 1016,6 hPa 0,0 l/m 7,8 km/h (2 Bft) W-SW 250 0 min 0,000 mm 0,0 UV-I 0 W/m 15,6 C 17,6 C 16,1 km/h (3 Bft) 96,00 %
09.08.2016 03:30 18,2 C 85 % 1016,6 hPa 0,0 l/m 9,6 km/h (2 Bft) W 275 0 min 0,000 mm 0,0 UV-I 0 W/m 15,6 C 16,8 C 14,5 km/h (3 Bft) 97,87 %
09.08.2016 03:32 18,2 C 85 % 1016,6 hPa 0,0 l/m 8,7 km/h (2 Bft) SW 229 0 min 0,000 mm 0,0 UV-I 0 W/m 15,6 C 17,2 C 12,9 km/h (3 Bft) 100,00 %
09.08.2016 03:34 18,1 C 86 % 1016,6 hPa 0,0 l/m 11,0 km/h (2 Bft) W-SW 240 0 min 0,000 mm 0,0 UV-I 0 W/m 15,7 C 16,2 C 14,5 km/h (3 Bft) 96,23 %
09.08.2016 03:36 18,0 C 86 % 1016,5 hPa 0,0 l/m 10,1 km/h (2 Bft) W-SW 252 0 min 0,000 mm 0,0 UV-I 0 W/m 15,6 C 16,4 C 14,5 km/h (3 Bft) 97,56 %
09.08.2016 03:38 17,9 C 87 % 1016,5 hPa 0,2 l/m 7,0 km/h (2 Bft) W-SW 249 0 min 0,000 mm 0,0 UV-I 0 W/m 15,7 C 17,6 C 11,3 km/h (2 Bft) 98,00 %
09.08.2016 03:40 17,8 C 88 % 1016,4 hPa 0,0 l/m 7,6 km/h (2 Bft) W 262 0 min 0,000 mm 0,0 UV-I 0 W/m 15,8 C 17,2 C 11,3 km/h (2 Bft) 95,45 %
09.08.2016 03:42 17,7 C 89 % 1016,5 hPa 0,2 l/m 7,2 km/h (2 Bft) W-SW 242 0 min 0,000 mm 0,0 UV-I 0 W/m 15,9 C 17,3 C 12,9 km/h (3 Bft) 94,64 %
09.08.2016 03:44 17,6 C 90 % 1016,5 hPa 0,2 l/m 8,5 km/h (2 Bft) S-SW 205 0 min 0,000 mm 0,0 UV-I 0 W/m 15,9 C 16,6 C 16,1 km/h (3 Bft) 97,37 %
09.08.2016 03:46 17,5 C 91 % 1016,5 hPa 0,2 l/m 11,6 km/h (2 Bft) W-SW 252 0 min 0,000 mm 0,0 UV-I 0 W/m 16,0 C 15,3 C 16,1 km/h (3 Bft) 96,43 %
09.08.2016 03:48 17,6 C 91 % 1016,5 hPa 0,0 l/m 11,4 km/h (2 Bft) W-SW 248 0 min 0,000 mm 0,0 UV-I 0 W/m 16,1 C 15,5 C 16,1 km/h (3 Bft) 100,00 %
09.08.2016 03:50 17,6 C 91 % 1016,5 hPa 0,0 l/m 8,8 km/h (2 Bft) W 264 0 min 0,000 mm 0,0 UV-I 0 W/m 16,1 C 16,5 C 12,9 km/h (3 Bft) 98,00 %
09.08.2016 03:52 17,6 C 91 % 1016,5 hPa 0,2 l/m 8,8 km/h (2 Bft) W-SW 251 0 min 0,000 mm 0,0 UV-I 0 W/m 16,1 C 16,5 C 12,9 km/h (3 Bft) 100,00 %
09.08.2016 03:54 17,6 C 92 % 1016,5 hPa 0,0 l/m 5,5 km/h (1 Bft) W 267 0 min 0,000 mm 0,0 UV-I 0 W/m 16,3 C 17,6 C 9,7 km/h (2 Bft) 100,00 %
09.08.2016 03:56 17,6 C 92 % 1016,4 hPa 0,0 l/m 3,0 km/h (1 Bft) W-SW 241 0 min 0,000 mm 0,0 UV-I 0 W/m 16,3 C 17,6 C 4,8 km/h (1 Bft) 96,00 %
09.08.2016 03:58 17,5 C 92 % 1016,5 hPa 0,2 l/m 3,5 km/h (1 Bft) W-SW 256 0 min 0,000 mm 0,0 UV-I 0 W/m 16,2 C 17,5 C 4,8 km/h (1 Bft) 97,14 %
09.08.2016 04:00 17,4 C 92 % 1016,5 hPa 0,2 l/m 7,6 km/h (2 Bft) W 263 0 min 0,025 mm 0,0 UV-I 0 W/m 16,1 C 16,8 C 12,9 km/h (3 Bft) 100,00 %
09.08.2016 04:02 17,4 C 93 % 1016,4 hPa 0,2 l/m 7,0 km/h (2 Bft) W-SW 244 0 min 0,000 mm 0,0 UV-I 0 W/m 16,3 C 17,1 C 14,5 km/h (3 Bft) 100,00 %
09.08.2016 04:04 17,3 C 93 % 1016,4 hPa 0,2 l/m 5,6 km/h (1 Bft) SW 227 0 min 0,000 mm 0,0 UV-I 0 W/m 16,2 C 17,3 C 8,0 km/h (2 Bft) 100,00 %
09.08.2016 04:06 17,3 C 93 % 1016,3 hPa 0,0 l/m 5,3 km/h (1 Bft) W 273 0 min 0,000 mm 0,0 UV-I 0 W/m 16,2 C 17,3 C 12,9 km/h (3 Bft) 97,73 %
09.08.2016 04:08 17,3 C 93 % 1016,3 hPa 0,0 l/m 2,4 km/h (1 Bft) W 263 0 min 0,000 mm 0,0 UV-I 0 W/m 16,2 C 17,3 C 6,4 km/h (2 Bft) 100,00 %
09.08.2016 04:10 17,3 C 93 % 1016,3 hPa 0,0 l/m 2,4 km/h (1 Bft) W-SW 255 0 min 0,000 mm 0,0 UV-I 0 W/m 16,2 C 17,3 C 4,8 km/h (1 Bft) 100,00 %
09.08.2016 04:12 17,3 C 93 % 1016,3 hPa 0,0 l/m 2,1 km/h (1 Bft) W-SW 254 0 min 0,000 mm 0,0 UV-I 0 W/m 16,2 C 17,3 C 4,8 km/h (1 Bft) 100,00 %
09.08.2016 04:14 17,3 C 93 % 1016,3 hPa 0,0 l/m 2,5 km/h (1 Bft) W-SW 254 0 min 0,000 mm 0,0 UV-I 0 W/m 16,2 C 17,3 C 4,8 km/h (1 Bft) 100,00 %
09.08.2016 04:16 17,3 C 94 % 1016,3 hPa 0,0 l/m 1,6 km/h (1 Bft) W-SW 254 0 min 0,000 mm 0,0 UV-I 0 W/m 16,3 C 17,3 C 3,2 km/h (1 Bft) 100,00 %
09.08.2016 04:18 17,3 C 94 % 1016,3 hPa 0,0 l/m 1,6 km/h (1 Bft) W-SW 254 0 min 0,000 mm 0,0 UV-I 0 W/m 16,3 C 17,3 C 3,2 km/h (1 Bft) 100,00 %
09.08.2016 04:20 17,4 C 94 % 1016,3 hPa 0,0 l/m 3,6 km/h (1 Bft) W-SW 246 0 min 0,000 mm 0,0 UV-I 0 W/m 16,4 C 17,4 C 6,4 km/h (2 Bft) 100,00 %
09.08.2016 04:22 17,4 C 94 % 1016,4 hPa 0,2 l/m 4,3 km/h (1 Bft) S-SW 207 0 min 0,000 mm 0,0 UV-I 0 W/m 16,4 C 17,4 C 6,4 km/h (2 Bft) 100,00 %
09.08.2016 04:24 17,3 C 94 % 1016,5 hPa 0,0 l/m 4,9 km/h (1 Bft) SW 231 0 min 0,000 mm 0,0 UV-I 0 W/m 16,3 C 17,3 C 8,0 km/h (2 Bft) 100,00 %
09.08.2016 04:26 17,3 C 94 % 1016,5 hPa 0,0 l/m 3,4 km/h (1 Bft) SW 232 0 min 0,000 mm 0,0 UV-I 0 W/m 16,3 C 17,3 C 4,8 km/h (1 Bft) 100,00 %
09.08.2016 04:28 17,3 C 94 % 1016,5 hPa 0,0 l/m 4,1 km/h (1 Bft) S-SW 213 0 min 0,000 mm 0,0 UV-I 0 W/m 16,3 C 17,3 C 6,4 km/h (2 Bft) 100,00 %
09.08.2016 04:30 17,3 C 94 % 1016,5 hPa 0,0 l/m 4,7 km/h (1 Bft) SW 217 0 min 0,000 mm 0,0 UV-I 0 W/m 16,3 C 17,3 C 9,7 km/h (2 Bft) 100,00 %
09.08.2016 04:32 17,2 C 94 % 1016,5 hPa 0,0 l/m 3,7 km/h (1 Bft) W-SW 241 0 min 0,000 mm 0,0 UV-I 0 W/m 16,2 C 17,2 C 6,4 km/h (2 Bft) 100,00 %
09.08.2016 04:34 17,2 C 94 % 1016,5 hPa 0,0 l/m 6,3 km/h (2 Bft) SW 228 0 min 0,000 mm 0,0 UV-I 0 W/m 16,2 C 17,2 C 14,5 km/h (3 Bft) 100,00 %
09.08.2016 04:36 17,2 C 94 % 1016,5 hPa 0,0 l/m 6,6 km/h (2 Bft) W-SW 257 0 min 0,000 mm 0,0 UV-I 0 W/m 16,2 C 17,1 C 14,5 km/h (3 Bft) 100,00 %
09.08.2016 04:38 17,3 C 94 % 1016,5 hPa 0,0 l/m 4,3 km/h (1 Bft) W-SW 252 0 min 0,000 mm 0,0 UV-I 0 W/m 16,3 C 17,3 C 6,4 km/h (2 Bft) 100,00 %
09.08.2016 04:40 17,3 C 94 % 1016,5 hPa 0,0 l/m 4,4 km/h (1 Bft) SW 220 0 min 0,000 mm 0,0 UV-I 0 W/m 16,3 C 17,3 C 6,4 km/h (2 Bft) 96,23 %
09.08.2016 04:42 17,3 C 94 % 1016,4 hPa 0,0 l/m 6,0 km/h (2 Bft) SW 232 0 min 0,000 mm 0,0 UV-I 0 W/m 16,3 C 17,3 C 9,7 km/h (2 Bft) 100,00 %
09.08.2016 04:44 17,3 C 94 % 1016,4 hPa 0,0 l/m 5,6 km/h (1 Bft) S-SW 207 0 min 0,000 mm 0,0 UV-I 0 W/m 16,3 C 17,3 C 8,0 km/h (2 Bft) 100,00 %
09.08.2016 04:46 17,2 C 94 % 1016,4 hPa 0,0 l/m 6,6 km/h (2 Bft) SW 230 0 min 0,000 mm 0,0 UV-I 0 W/m 16,2 C 17,1 C 11,3 km/h (2 Bft) 96,43 %
09.08.2016 04:48 17,2 C 94 % 1016,4 hPa 0,0 l/m 6,9 km/h (2 Bft) W-SW 243 0 min 0,000 mm 0,0 UV-I 0 W/m 16,2 C 17,0 C 12,9 km/h (3 Bft) 100,00 %
09.08.2016 04:50 17,2 C 94 % 1016,3 hPa 0,0 l/m 4,1 km/h (1 Bft) SW 229 0 min 0,000 mm 0,0 UV-I 0 W/m 16,2 C 17,2 C 6,4 km/h (2 Bft) 91,49 %
09.08.2016 04:52 17,3 C 94 % 1016,2 hPa 0,2 l/m 4,5 km/h (1 Bft) SW 225 0 min 0,000 mm 0,0 UV-I 0 W/m 16,3 C 17,3 C 6,4 km/h (2 Bft) 100,00 %
09.08.2016 04:54 17,3 C 94 % 1016,2 hPa 0,0 l/m 3,8 km/h (1 Bft) S-SW 213 0 min 0,000 mm 0,0 UV-I 0 W/m 16,3 C 17,3 C 4,8 km/h (1 Bft) 100,00 %
09.08.2016 04:56 17,3 C 93 % 1016,2 hPa 0,0 l/m 4,0 km/h (1 Bft) S-SW 213 0 min 0,000 mm 0,0 UV-I 0 W/m 16,2 C 17,3 C 4,8 km/h (1 Bft) 97,87 %
09.08.2016 04:58 17,3 C 93 % 1016,2 hPa 0,0 l/m 4,7 km/h (1 Bft) S-SW 209 0 min 0,000 mm 0,0 UV-I 0 W/m 16,2 C 17,3 C 8,0 km/h (2 Bft) 100,00 %
09.08.2016 05:00 17,3 C 93 % 1016,2 hPa 0,0 l/m 4,2 km/h (1 Bft) SW 223 0 min 0,000 mm 0,0 UV-I 0 W/m 16,2 C 17,3 C 4,8 km/h (1 Bft) 100,00 %
09.08.2016 05:02 17,2 C 93 % 1016,1 hPa 0,0 l/m 3,3 km/h (1 Bft) SW 214 0 min 0,000 mm 0,0 UV-I 0 W/m 16,1 C 17,2 C 4,8 km/h (1 Bft) 100,00 %
09.08.2016 05:04 17,2 C 93 % 1016,1 hPa 0,0 l/m 4,3 km/h (1 Bft) SW 214 0 min 0,000 mm 0,0 UV-I 0 W/m 16,1 C 17,2 C 6,4 km/h (2 Bft) 100,00 %
09.08.2016 05:06 17,3 C 93 % 1016,2 hPa 0,0 l/m 4,3 km/h (1 Bft) S-SW 193 0 min 0,000 mm 0,0 UV-I 0 W/m 16,2 C 17,3 C 6,4 km/h (2 Bft) 100,00 %
09.08.2016 05:08 17,3 C 93 % 1016,2 hPa 0,0 l/m 6,2 km/h (2 Bft) S 176 0 min 0,000 mm 0,0 UV-I 0 W/m 16,2 C 17,3 C 8,0 km/h (2 Bft) 100,00 %
09.08.2016 05:10 17,2 C 93 % 1016,1 hPa 0,0 l/m 4,3 km/h (1 Bft) S 188 0 min 0,000 mm 0,0 UV-I 0 W/m 16,1 C 17,2 C 8,0 km/h (2 Bft) 100,00 %
09.08.2016 05:12 17,2 C 93 % 1016,2 hPa 0,0 l/m 6,1 km/h (2 Bft) S 186 0 min 0,000 mm 0,0 UV-I 0 W/m 16,1 C 17,2 C 9,7 km/h (2 Bft) 95,74 %
09.08.2016 05:14 17,2 C 93 % 1016,1 hPa 0,0 l/m 5,4 km/h (1 Bft) S-SW 193 0 min 0,000 mm 0,0 UV-I 0 W/m 16,1 C 17,2 C 8,0 km/h (2 Bft) 100,00 %
09.08.2016 05:16 17,1 C 93 % 1016,1 hPa 0,0 l/m 4,0 km/h (1 Bft) S 189 0 min 0,000 mm 0,0 UV-I 0 W/m 16,0 C 17,1 C 6,4 km/h (2 Bft) 97,92 %
09.08.2016 05:18 17,1 C 93 % 1015,9 hPa 0,0 l/m 3,8 km/h (1 Bft) S 185 0 min 0,000 mm 0,0 UV-I 0 W/m 16,0 C 17,1 C 6,4 km/h (2 Bft) 100,00 %
09.08.2016 05:20 17,1 C 93 % 1016,0 hPa 0,0 l/m 2,2 km/h (1 Bft) S 177 0 min 0,000 mm 0,0 UV-I 0 W/m 16,0 C 17,1 C 4,8 km/h (1 Bft) 96,92 %
09.08.2016 05:22 17,1 C 93 % 1016,0 hPa 0,0 l/m 3,7 km/h (1 Bft) S 184 0 min 0,000 mm 0,0 UV-I 0 W/m 16,0 C 17,1 C 4,8 km/h (1 Bft) 94,74 %
09.08.2016 05:24 17,1 C 93 % 1016,0 hPa 0,0 l/m 4,2 km/h (1 Bft) S 186 0 min 0,000 mm 0,0 UV-I 0 W/m 16,0 C 17,1 C 6,4 km/h (2 Bft) 98,00 %
09.08.2016 05:26 17,1 C 93 % 1015,9 hPa 0,0 l/m 2,4 km/h (1 Bft) S 186 0 min 0,000 mm 0,0 UV-I 0 W/m 16,0 C 17,1 C 3,2 km/h (1 Bft) 97,87 %
09.08.2016 05:28 17,1 C 93 % 1015,8 hPa 0,0 l/m 2,2 km/h (1 Bft) S 186 0 min 0,000 mm 0,0 UV-I 0 W/m 16,0 C 17,1 C 4,8 km/h (1 Bft) 95,74 %
09.08.2016 05:30 17,1 C 92 % 1015,8 hPa 0,0 l/m 0,1 km/h (0 Bft) S 186 0 min 0,000 mm 0,0 UV-I 0 W/m 15,8 C 17,1 C 1,6 km/h (1 Bft) 98,00 %
09.08.2016 05:32 17,1 C 92 % 1015,8 hPa 0,0 l/m 0,0 km/h (0 Bft) S 186 0 min 0,000 mm 0,0 UV-I 0 W/m 15,8 C 17,1 C 1,6 km/h (1 Bft) 97,56 %
09.08.2016 05:34 17,0 C 92 % 1015,8 hPa 0,0 l/m 0,8 km/h (0 Bft) S 186 0 min 0,000 mm 0,0 UV-I 0 W/m 15,7 C 17,0 C 1,6 km/h (1 Bft) 96,00 %
09.08.2016 05:36 17,0 C 93 % 1015,8 hPa 0,0 l/m 1,9 km/h (1 Bft) S 186 0 min 0,000 mm 0,0 UV-I 0 W/m 15,9 C 17,0 C 3,2 km/h (1 Bft) 97,87 %
09.08.2016 05:38 16,9 C 93 % 1015,8 hPa 0,0 l/m 1,3 km/h (1 Bft) S 186 0 min 0,000 mm 0,0 UV-I 0 W/m 15,8 C 16,9 C 3,2 km/h (1 Bft) 96,00 %
09.08.2016 05:40 16,9 C 93 % 1015,8 hPa 0,0 l/m 0,6 km/h (0 Bft) S 186 0 min 0,000 mm 0,0 UV-I 0 W/m 15,8 C 16,9 C 1,6 km/h (1 Bft) 97,56 %
09.08.2016 05:42 16,8 C 93 % 1015,8 hPa 0,0 l/m 0,9 km/h (0 Bft) S 186 0 min 0,000 mm 0,0 UV-I 0 W/m 15,7 C 16,8 C 1,6 km/h (1 Bft) 97,87 %
09.08.2016 05:44 16,7 C 93 % 1015,8 hPa 0,0 l/m 1,7 km/h (1 Bft) S 186 0 min 0,000 mm 0,0 UV-I 0 W/m 15,6 C 16,7 C 3,2 km/h (1 Bft) 96,00 %
09.08.2016 05:46 16,6 C 93 % 1015,8 hPa 0,0 l/m 0,4 km/h (0 Bft) S 186 0 min 0,000 mm 0,0 UV-I 0 W/m 15,5 C 16,6 C 1,6 km/h (1 Bft) 97,44 %
09.08.2016 05:48 16,5 C 94 % 1015,8 hPa 0,0 l/m 1,3 km/h (1 Bft) S 186 0 min 0,000 mm 0,0 UV-I 0 W/m 15,5 C 16,5 C 3,2 km/h (1 Bft) 98,08 %
09.08.2016 05:50 16,5 C 94 % 1015,8 hPa 0,0 l/m 1,2 km/h (1 Bft) S 186 0 min 0,000 mm 0,0 UV-I 0 W/m 15,5 C 16,5 C 3,2 km/h (1 Bft) 97,92 %
09.08.2016 05:52 16,5 C 94 % 1015,8 hPa 0,0 l/m 0,5 km/h (0 Bft) S 186 0 min 0,000 mm 0,0 UV-I 0 W/m 15,5 C 16,5 C 1,6 km/h (1 Bft) 96,00 %
09.08.2016 05:54 16,5 C 94 % 1015,8 hPa 0,0 l/m 1,0 km/h (0 Bft) S 186 0 min 0,000 mm 0,0 UV-I 3 W/m 15,5 C 16,5 C 1,6 km/h (1 Bft) 97,92 %
09.08.2016 05:56 16,4 C 94 % 1015,8 hPa 0,0 l/m 2,0 km/h (1 Bft) S 186 0 min 0,000 mm 0,0 UV-I 5 W/m 15,4 C 16,4 C 3,2 km/h (1 Bft) 100,00 %
09.08.2016 05:58 16,4 C 95 % 1015,9 hPa 0,0 l/m 2,7 km/h (1 Bft) S 186 0 min 0,000 mm 0,0 UV-I 5 W/m 15,6 C 16,4 C 4,8 km/h (1 Bft) 100,00 %
09.08.2016 06:00 16,4 C 95 % 1015,8 hPa 0,0 l/m 3,4 km/h (1 Bft) S 186 0 min 0,000 mm 0,0 UV-I 5 W/m 15,6 C 16,4 C 4,8 km/h (1 Bft) 100,00 %
09.08.2016 06:02 16,4 C 95 % 1015,9 hPa 0,0 l/m 2,8 km/h (1 Bft) S 186 0 min 0,000 mm 0,0 UV-I 7 W/m 15,6 C 16,4 C 4,8 km/h (1 Bft) 97,92 %
09.08.2016 06:04 16,3 C 95 % 1015,9 hPa 0,0 l/m 1,8 km/h (1 Bft) S 186 0 min 0,000 mm 0,0 UV-I 7 W/m 15,5 C 16,3 C 3,2 km/h (1 Bft) 100,00 %
09.08.2016 06:06 16,3 C 95 % 1016,0 hPa 0,0 l/m 1,5 km/h (1 Bft) S 186 0 min 0,000 mm 0,0 UV-I 8 W/m 15,5 C 16,3 C 3,2 km/h (1 Bft) 100,00 %
09.08.2016 06:08 16,3 C 94 % 1016,0 hPa 0,0 l/m 0,2 km/h (0 Bft) S 186 0 min 0,000 mm 0,0 UV-I 9 W/m 15,3 C 16,3 C 1,6 km/h (1 Bft) 100,00 %
09.08.2016 06:10 16,3 C 94 % 1016,0 hPa 0,0 l/m 0,1 km/h (0 Bft) S 186 0 min 0,000 mm 0,0 UV-I 10 W/m 15,3 C 16,3 C 1,6 km/h (1 Bft) 100,00 %
09.08.2016 06:12 16,2 C 94 % 1015,9 hPa 0,0 l/m 0,0 km/h (0 Bft) S 186 0 min 0,000 mm 0,0 UV-I 11 W/m 15,2 C 16,2 C 0,0 km/h (0 Bft) 100,00 %
09.08.2016 06:14 16,2 C 95 % 1015,9 hPa 0,0 l/m 0,6 km/h (0 Bft) S 186 0 min 0,000 mm 0,0 UV-I 11 W/m 15,4 C 16,2 C 1,6 km/h (1 Bft) 97,87 %
09.08.2016 06:16 16,2 C 95 % 1015,9 hPa 0,0 l/m 1,5 km/h (1 Bft) S 186 0 min 0,000 mm 0,0 UV-I 12 W/m 15,4 C 16,2 C 3,2 km/h (1 Bft) 100,00 %
09.08.2016 06:18 16,1 C 95 % 1015,9 hPa 0,0 l/m 1,2 km/h (1 Bft) S 186 0 min 0,000 mm 0,0 UV-I 12 W/m 15,3 C 16,1 C 3,2 km/h (1 Bft) 100,00 %
09.08.2016 06:20 16,1 C 95 % 1015,9 hPa 0,0 l/m 0,9 km/h (0 Bft) S 186 0 min 0,000 mm 0,0 UV-I 14 W/m 15,3 C 16,1 C 1,6 km/h (1 Bft) 96,23 %
09.08.2016 06:22 16,0 C 95 % 1015,9 hPa 0,0 l/m 1,8 km/h (1 Bft) S 186 0 min 0,000 mm 0,0 UV-I 14 W/m 15,2 C 16,0 C 3,2 km/h (1 Bft) 100,00 %
09.08.2016 06:24 16,0 C 95 % 1015,9 hPa 0,0 l/m 1,6 km/h (1 Bft) S 186 0 min 0,000 mm 0,0 UV-I 16 W/m 15,2 C 16,0 C 4,8 km/h (1 Bft) 100,00 %
09.08.2016 06:26 16,0 C 95 % 1015,9 hPa 0,0 l/m 0,8 km/h (0 Bft) S 186 0 min 0,000 mm 0,0 UV-I 16 W/m 15,2 C 16,0 C 3,2 km/h (1 Bft) 100,00 %
09.08.2016 06:28 16,1 C 95 % 1015,9 hPa 0,0 l/m 0,7 km/h (0 Bft) S 186 0 min 0,000 mm 0,0 UV-I 18 W/m 15,3 C 16,1 C 1,6 km/h (1 Bft) 100,00 %
09.08.2016 06:30 16,1 C 95 % 1015,9 hPa 0,0 l/m 1,7 km/h (1 Bft) S 186 0 min 0,000 mm 0,0 UV-I 19 W/m 15,3 C 16,1 C 3,2 km/h (1 Bft) 100,00 %
09.08.2016 06:32 16,1 C 95 % 1016,0 hPa 0,0 l/m 1,5 km/h (1 Bft) S 186 0 min 0,000 mm 0,0 UV-I 19 W/m 15,3 C 16,1 C 3,2 km/h (1 Bft) 97,73 %
09.08.2016 06:34 16,2 C 95 % 1016,0 hPa 0,0 l/m 1,8 km/h (1 Bft) S 186 0 min 0,000 mm 0,0 UV-I 21 W/m 15,4 C 16,2 C 3,2 km/h (1 Bft) 100,00 %
09.08.2016 06:36 16,2 C 95 % 1016,0 hPa 0,0 l/m 0,4 km/h (0 Bft) S 186 0 min 0,000 mm 0,0 UV-I 22 W/m 15,4 C 16,2 C 1,6 km/h (1 Bft) 100,00 %
09.08.2016 06:38 16,1 C 95 % 1015,9 hPa 0,0 l/m 0,0 km/h (0 Bft) S 186 0 min 0,000 mm 0,0 UV-I 23 W/m 15,3 C 16,1 C 0,0 km/h (0 Bft) 95,74 %
09.08.2016 06:40 16,1 C 95 % 1016,0 hPa 0,0 l/m 0,0 km/h (0 Bft) S 186 0 min 0,000 mm 0,0 UV-I 25 W/m 15,3 C 16,1 C 0,0 km/h (0 Bft) 100,00 %
09.08.2016 06:42 16,2 C 96 % 1016,0 hPa 0,0 l/m 0,0 km/h (0 Bft) S 186 0 min 0,000 mm 0,0 UV-I 26 W/m 15,6 C 16,2 C 1,6 km/h (1 Bft) 100,00 %
09.08.2016 06:44 16,2 C 95 % 1016,0 hPa 0,0 l/m 0,0 km/h (0 Bft) S 186 0 min 0,000 mm 0,0 UV-I 30 W/m 15,4 C 16,2 C 0,0 km/h (0 Bft) 97,37 %
09.08.2016 06:46 16,2 C 96 % 1016,1 hPa 0,0 l/m 0,0 km/h (0 Bft) S 186 0 min 0,000 mm 0,0 UV-I 34 W/m 15,6 C 16,2 C 0,0 km/h (0 Bft) 100,00 %
09.08.2016 06:48 16,2 C 96 % 1016,1 hPa 0,0 l/m 1,0 km/h (0 Bft) S 186 0 min 0,000 mm 0,0 UV-I 38 W/m 15,6 C 16,2 C 1,6 km/h (1 Bft) 100,00 %
09.08.2016 06:50 16,2 C 96 % 1016,1 hPa 0,0 l/m 1,3 km/h (1 Bft) S 186 0 min 0,000 mm 0,0 UV-I 42 W/m 15,6 C 16,2 C 1,6 km/h (1 Bft) 100,00 %
09.08.2016 06:52 16,3 C 96 % 1016,1 hPa 0,0 l/m 1,7 km/h (1 Bft) S 186 0 min 0,000 mm 0,0 UV-I 48 W/m 15,7 C 16,3 C 3,2 km/h (1 Bft) 100,00 %
09.08.2016 06:54 16,3 C 96 % 1016,2 hPa 0,0 l/m 2,0 km/h (1 Bft) S 186 0 min 0,000 mm 0,0 UV-I 54 W/m 15,7 C 16,3 C 3,2 km/h (1 Bft) 100,00 %
09.08.2016 06:56 16,3 C 95 % 1016,2 hPa 0,0 l/m 2,9 km/h (1 Bft) S 186 0 min 0,000 mm 0,0 UV-I 66 W/m 15,5 C 16,3 C 4,8 km/h (1 Bft) 100,00 %
09.08.2016 06:58 16,4 C 95 % 1016,2 hPa 0,0 l/m 4,3 km/h (1 Bft) S-SW 204 0 min 0,000 mm 0,0 UV-I 78 W/m 15,6 C 16,4 C 4,8 km/h (1 Bft) 100,00 %
09.08.2016 07:00 16,5 C 95 % 1016,3 hPa 0,0 l/m 4,3 km/h (1 Bft) S-SW 212 2 min 0,026 mm 0,0 UV-I 99 W/m 15,7 C 16,5 C 6,4 km/h (2 Bft) 97,87 %
09.08.2016 07:02 16,6 C 96 % 1016,2 hPa 0,0 l/m 3,6 km/h (1 Bft) SW 215 2 min 0,000 mm 0,0 UV-I 110 W/m 16,0 C 16,6 C 4,8 km/h (1 Bft) 100,00 %
09.08.2016 07:04 16,7 C 95 % 1016,2 hPa 0,0 l/m 3,8 km/h (1 Bft) SW 218 2 min 0,000 mm 0,0 UV-I 109 W/m 15,9 C 16,7 C 6,4 km/h (2 Bft) 100,00 %
09.08.2016 07:06 16,8 C 95 % 1016,3 hPa 0,0 l/m 2,7 km/h (1 Bft) SW 232 2 min 0,000 mm 0,0 UV-I 113 W/m 16,0 C 16,8 C 6,4 km/h (2 Bft) 100,00 %
09.08.2016 07:08 16,9 C 95 % 1016,3 hPa 0,0 l/m 3,5 km/h (1 Bft) SW 232 2 min 0,000 mm 0,0 UV-I 121 W/m 16,1 C 16,9 C 4,8 km/h (1 Bft) 100,00 %
09.08.2016 07:10 17,0 C 94 % 1016,3 hPa 0,0 l/m 2,8 km/h (1 Bft) SW 232 2 min 0,000 mm 0,0 UV-I 128 W/m 16,0 C 17,0 C 4,8 km/h (1 Bft) 100,00 %
09.08.2016 07:12 17,1 C 94 % 1016,3 hPa 0,0 l/m 1,0 km/h (0 Bft) SW 232 2 min 0,000 mm 0,0 UV-I 117 W/m 16,1 C 17,1 C 3,2 km/h (1 Bft) 100,00 %
09.08.2016 07:14 17,2 C 94 % 1016,3 hPa 0,0 l/m 0,2 km/h (0 Bft) SW 232 2 min 0,000 mm 0,0 UV-I 117 W/m 16,2 C 17,2 C 1,6 km/h (1 Bft) 100,00 %
09.08.2016 07:16 17,3 C 95 % 1016,2 hPa 0,0 l/m 2,0 km/h (1 Bft) W 261 2 min 0,000 mm 0,0 UV-I 136 W/m 16,5 C 17,3 C 4,8 km/h (1 Bft) 100,00 %
09.08.2016 07:18 17,4 C 94 % 1016,3 hPa 0,0 l/m 1,8 km/h (1 Bft) W 263 2 min 0,000 mm 0,0 UV-I 141 W/m 16,4 C 17,4 C 3,2 km/h (1 Bft) 96,00 %
09.08.2016 07:20 17,4 C 94 % 1016,2 hPa 0,0 l/m 1,2 km/h (1 Bft) W 263 2 min 0,000 mm 0,0 UV-I 135 W/m 16,4 C 17,4 C 3,2 km/h (1 Bft) 96,23 %
09.08.2016 07:22 17,5 C 93 % 1016,3 hPa 0,0 l/m 2,4 km/h (1 Bft) W 263 0 min 0,000 mm 0,0 UV-I 126 W/m 16,4 C 17,5 C 4,8 km/h (1 Bft) 97,37 %
09.08.2016 07:24 17,5 C 92 % 1016,2 hPa 0,0 l/m 2,6 km/h (1 Bft) W 263 0 min 0,000 mm 0,0 UV-I 105 W/m 16,2 C 17,5 C 4,8 km/h (1 Bft) 97,87 %
09.08.2016 07:26 17,5 C 92 % 1016,2 hPa 0,0 l/m 3,4 km/h (1 Bft) W 264 0 min 0,000 mm 0,0 UV-I 112 W/m 16,2 C 17,5 C 4,8 km/h (1 Bft) 98,11 %
09.08.2016 07:28 17,6 C 92 % 1016,2 hPa 0,0 l/m 2,5 km/h (1 Bft) W 264 2 min 0,000 mm 0,0 UV-I 149 W/m 16,3 C 17,6 C 4,8 km/h (1 Bft) 97,37 %
09.08.2016 07:30 17,6 C 92 % 1016,2 hPa 0,0 l/m 2,2 km/h (1 Bft) W 264 0 min 0,000 mm 0,0 UV-I 126 W/m 16,3 C 17,6 C 3,2 km/h (1 Bft) 96,00 %
09.08.2016 07:32 17,6 C 93 % 1016,2 hPa 0,0 l/m 2,1 km/h (1 Bft) W 267 0 min 0,000 mm 0,0 UV-I 119 W/m 16,5 C 17,6 C 4,8 km/h (1 Bft) 96,23 %
09.08.2016 07:34 17,6 C 92 % 1016,2 hPa 0,0 l/m 3,6 km/h (1 Bft) W-SW 253 0 min 0,000 mm 0,0 UV-I 143 W/m 16,3 C 17,6 C 6,4 km/h (2 Bft) 100,00 %
09.08.2016 07:36 17,6 C 92 % 1016,2 hPa 0,0 l/m 4,5 km/h (1 Bft) W-SW 238 2 min 0,000 mm 0,0 UV-I 209 W/m 16,3 C 17,6 C 8,0 km/h (2 Bft) 95,74 %
09.08.2016 07:38 17,7 C 93 % 1016,2 hPa 0,0 l/m 2,8 km/h (1 Bft) W-SW 238 2 min 0,000 mm 0,0 UV-I 212 W/m 16,6 C 17,7 C 4,8 km/h (1 Bft) 97,87 %
09.08.2016 07:40 17,8 C 92 % 1016,1 hPa 0,0 l/m 3,1 km/h (1 Bft) W-SW 238 2 min 0,000 mm 0,0 UV-I 210 W/m 16,5 C 17,8 C 4,8 km/h (1 Bft) 97,87 %
09.08.2016 07:42 17,8 C 92 % 1016,1 hPa 0,0 l/m 2,8 km/h (1 Bft) W 267 2 min 0,000 mm 0,0 UV-I 206 W/m 16,5 C 17,8 C 4,8 km/h (1 Bft) 98,00 %
09.08.2016 07:44 17,9 C 92 % 1016,2 hPa 0,0 l/m 2,6 km/h (1 Bft) W 261 2 min 0,000 mm 0,0 UV-I 197 W/m 16,6 C 17,9 C 4,8 km/h (1 Bft) 98,00 %
09.08.2016 07:46 17,9 C 92 % 1016,1 hPa 0,0 l/m 1,8 km/h (1 Bft) W 261 2 min 0,000 mm 0,3 UV-I 197 W/m 16,6 C 17,9 C 3,2 km/h (1 Bft) 97,62 %
09.08.2016 07:48 17,9 C 91 % 1016,1 hPa 0,0 l/m 1,5 km/h (1 Bft) W 261 2 min 0,000 mm 0,5 UV-I 179 W/m 16,4 C 17,9 C 4,8 km/h (1 Bft) 97,87 %
09.08.2016 07:50 17,9 C 91 % 1016,1 hPa 0,0 l/m 4,0 km/h (1 Bft) W 260 2 min 0,000 mm 0,5 UV-I 190 W/m 16,4 C 17,9 C 4,8 km/h (1 Bft) 97,87 %
09.08.2016 07:52 18,0 C 91 % 1016,1 hPa 0,0 l/m 3,8 km/h (1 Bft) W 259 2 min 0,000 mm 0,5 UV-I 183 W/m 16,5 C 18,0 C 6,4 km/h (2 Bft) 100,00 %
09.08.2016 07:54 18,0 C 91 % 1016,1 hPa 0,0 l/m 1,3 km/h (1 Bft) W 259 2 min 0,000 mm 0,6 UV-I 199 W/m 16,5 C 18,0 C 3,2 km/h (1 Bft) 100,00 %
09.08.2016 07:56 18,1 C 91 % 1016,1 hPa 0,0 l/m 0,8 km/h (0 Bft) W-SW 258 2 min 0,000 mm 0,6 UV-I 238 W/m 16,6 C 18,1 C 3,2 km/h (1 Bft) 100,00 %
09.08.2016 07:58 18,2 C 91 % 1016,1 hPa 0,0 l/m 0,4 km/h (0 Bft) W-SW 258 2 min 0,000 mm 0,6 UV-I 232 W/m 16,7 C 18,2 C 1,6 km/h (1 Bft) 100,00 %
09.08.2016 08:00 18,1 C 90 % 1016,1 hPa 0,0 l/m 0,2 km/h (0 Bft) W-SW 258 2 min 0,101 mm 0,6 UV-I 228 W/m 16,4 C 18,1 C 1,6 km/h (1 Bft) 100,00 %
09.08.2016 08:02 18,2 C 91 % 1016,0 hPa 0,0 l/m 0,4 km/h (0 Bft) W-SW 258 2 min 0,000 mm 0,6 UV-I 233 W/m 16,7 C 18,2 C 3,2 km/h (1 Bft) 97,87 %
09.08.2016 08:04 18,3 C 90 % 1016,0 hPa 0,0 l/m 1,3 km/h (1 Bft) W-SW 258 2 min 0,000 mm 0,7 UV-I 240 W/m 16,6 C 18,3 C 1,6 km/h (1 Bft) 100,00 %
09.08.2016 08:06 18,3 C 89 % 1016,0 hPa 0,0 l/m 0,5 km/h (0 Bft) W-SW 258 2 min 0,000 mm 0,7 UV-I 250 W/m 16,5 C 18,3 C 1,6 km/h (1 Bft) 100,00 %
09.08.2016 08:08 18,5 C 89 % 1016,0 hPa 0,0 l/m 0,0 km/h (0 Bft) W-SW 258 2 min 0,000 mm 0,7 UV-I 254 W/m 16,7 C 18,5 C 1,6 km/h (1 Bft) 100,00 %
09.08.2016 08:10 18,7 C 88 % 1015,9 hPa 0,0 l/m 1,6 km/h (1 Bft) W-SW 258 2 min 0,000 mm 0,7 UV-I 202 W/m 16,7 C 18,7 C 3,2 km/h (1 Bft) 100,00 %
09.08.2016 08:12 18,7 C 88 % 1015,9 hPa 0,0 l/m 0,7 km/h (0 Bft) W-SW 258 2 min 0,000 mm 0,8 UV-I 223 W/m 16,7 C 18,7 C 3,2 km/h (1 Bft) 100,00 %
09.08.2016 08:14 18,8 C 89 % 1015,9 hPa 0,0 l/m 0,4 km/h (0 Bft) W-SW 258 2 min 0,000 mm 0,8 UV-I 263 W/m 16,9 C 18,8 C 1,6 km/h (1 Bft) 100,00 %
09.08.2016 08:16 18,8 C 87 % 1015,9 hPa 0,0 l/m 1,5 km/h (1 Bft) W 265 2 min 0,000 mm 0,9 UV-I 285 W/m 16,6 C 18,8 C 3,2 km/h (1 Bft) 100,00 %
09.08.2016 08:18 18,8 C 87 % 1015,9 hPa 0,0 l/m 3,0 km/h (1 Bft) W 275 2 min 0,000 mm 0,9 UV-I 233 W/m 16,6 C 18,8 C 4,8 km/h (1 Bft) 100,00 %
09.08.2016 08:20 18,8 C 88 % 1015,9 hPa 0,0 l/m 1,0 km/h (0 Bft) W 275 2 min 0,000 mm 0,9 UV-I 375 W/m 16,8 C 18,8 C 3,2 km/h (1 Bft) 100,00 %
09.08.2016 08:22 18,9 C 88 % 1016,0 hPa 0,0 l/m 1,7 km/h (1 Bft) W 275 2 min 0,000 mm 0,9 UV-I 381 W/m 16,9 C 18,9 C 3,2 km/h (1 Bft) 100,00 %
09.08.2016 08:24 18,9 C 87 % 1016,1 hPa 0,0 l/m 2,2 km/h (1 Bft) W 275 2 min 0,000 mm 1,0 UV-I 380 W/m 16,7 C 18,9 C 4,8 km/h (1 Bft) 97,87 %
09.08.2016 08:26 19,1 C 88 % 1016,1 hPa 0,0 l/m 3,5 km/h (1 Bft) NW 321 2 min 0,000 mm 1,0 UV-I 317 W/m 17,1 C 19,1 C 8,0 km/h (2 Bft) 96,30 %
09.08.2016 08:28 19,3 C 88 % 1016,0 hPa 0,0 l/m 3,9 km/h (1 Bft) NW 317 2 min 0,000 mm 1,0 UV-I 363 W/m 17,3 C 19,3 C 8,0 km/h (2 Bft) 98,51 %
09.08.2016 08:30 19,4 C 87 % 1016,1 hPa 0,0 l/m 5,0 km/h (1 Bft) W-NW 293 2 min 0,000 mm 1,0 UV-I 376 W/m 17,2 C 19,4 C 8,0 km/h (2 Bft) 100,00 %
09.08.2016 08:32 19,4 C 87 % 1016,1 hPa 0,0 l/m 2,8 km/h (1 Bft) NW 321 2 min 0,000 mm 1,0 UV-I 264 W/m 17,2 C 19,4 C 4,8 km/h (1 Bft) 98,53 %
09.08.2016 08:34 19,4 C 86 % 1016,1 hPa 0,0 l/m 2,3 km/h (1 Bft) NW 304 2 min 0,000 mm 1,0 UV-I 302 W/m 17,0 C 19,4 C 4,8 km/h (1 Bft) 97,37 %
09.08.2016 08:36 19,4 C 86 % 1016,1 hPa 0,0 l/m 1,1 km/h (1 Bft) NW 306 2 min 0,000 mm 0,9 UV-I 388 W/m 17,0 C 19,4 C 1,6 km/h (1 Bft) 98,00 %
09.08.2016 08:38 19,3 C 88 % 1016,1 hPa 0,0 l/m 3,0 km/h (1 Bft) W 259 2 min 0,000 mm 0,9 UV-I 290 W/m 17,3 C 19,3 C 6,4 km/h (2 Bft) 100,00 %
09.08.2016 08:40 19,2 C 87 % 1016,1 hPa 0,0 l/m 4,0 km/h (1 Bft) W-NW 282 0 min 0,000 mm 0,8 UV-I 198 W/m 17,0 C 19,2 C 8,0 km/h (2 Bft) 100,00 %
09.08.2016 08:42 19,2 C 88 % 1016,1 hPa 0,0 l/m 1,8 km/h (1 Bft) W 277 0 min 0,000 mm 0,8 UV-I 196 W/m 17,2 C 19,2 C 6,4 km/h (2 Bft) 97,37 %
09.08.2016 08:44 19,1 C 88 % 1016,1 hPa 0,0 l/m 3,3 km/h (1 Bft) NW 323 0 min 0,000 mm 0,9 UV-I 195 W/m 17,1 C 19,1 C 6,4 km/h (2 Bft) 98,00 %
09.08.2016 08:46 19,1 C 89 % 1016,1 hPa 0,0 l/m 2,2 km/h (1 Bft) W 276 0 min 0,000 mm 0,9 UV-I 198 W/m 17,2 C 19,1 C 3,2 km/h (1 Bft) 100,00 %
09.08.2016 08:48 19,1 C 90 % 1016,2 hPa 0,0 l/m 2,9 km/h (1 Bft) W-SW 244 0 min 0,000 mm 0,8 UV-I 187 W/m 17,4 C 19,1 C 4,8 km/h (1 Bft) 100,00 %
09.08.2016 08:50 19,1 C 89 % 1016,2 hPa 0,0 l/m 3,0 km/h (1 Bft) W-SW 238 0 min 0,000 mm 0,8 UV-I 185 W/m 17,2 C 19,1 C 4,8 km/h (1 Bft) 100,00 %
09.08.2016 08:52 19,1 C 90 % 1016,2 hPa 0,0 l/m 3,4 km/h (1 Bft) W-SW 250 0 min 0,000 mm 0,9 UV-I 198 W/m 17,4 C 19,1 C 4,8 km/h (1 Bft) 100,00 %
09.08.2016 08:54 19,2 C 89 % 1016,3 hPa 0,0 l/m 4,6 km/h (1 Bft) W 259 0 min 0,000 mm 0,9 UV-I 201 W/m 17,3 C 19,2 C 6,4 km/h (2 Bft) 100,00 %
09.08.2016 08:56 19,2 C 90 % 1016,3 hPa 0,0 l/m 3,1 km/h (1 Bft) W-SW 257 0 min 0,000 mm 0,7 UV-I 169 W/m 17,5 C 19,2 C 6,4 km/h (2 Bft) 98,00 %
09.08.2016 08:58 19,2 C 90 % 1016,3 hPa 0,0 l/m 2,3 km/h (1 Bft) W 269 0 min 0,000 mm 0,5 UV-I 130 W/m 17,5 C 19,2 C 4,8 km/h (1 Bft) 100,00 %
09.08.2016 09:00 19,2 C 90 % 1016,4 hPa 0,0 l/m 5,4 km/h (1 Bft) W-SW 239 0 min 0,153 mm 0,5 UV-I 114 W/m 17,5 C 19,2 C 11,3 km/h (2 Bft) 100,00 %
09.08.2016 09:02 19,1 C 89 % 1016,4 hPa 0,0 l/m 6,8 km/h (2 Bft) W-SW 246 0 min 0,000 mm 0,5 UV-I 108 W/m 17,2 C 18,9 C 11,3 km/h (2 Bft) 100,00 %
09.08.2016 09:04 19,1 C 89 % 1016,5 hPa 0,0 l/m 5,9 km/h (2 Bft) W-SW 258 0 min 0,000 mm 0,5 UV-I 102 W/m 17,2 C 19,1 C 9,7 km/h (2 Bft) 100,00 %
09.08.2016 09:06 19,1 C 90 % 1016,5 hPa 0,0 l/m 5,0 km/h (1 Bft) W 273 0 min 0,000 mm 0,1 UV-I 91 W/m 17,4 C 19,1 C 9,7 km/h (2 Bft) 100,00 %
09.08.2016 09:08 19,0 C 90 % 1016,5 hPa 0,0 l/m 5,7 km/h (1 Bft) W 270 0 min 0,000 mm 0,0 UV-I 79 W/m 17,3 C 19,0 C 11,3 km/h (2 Bft) 100,00 %
09.08.2016 09:10 18,9 C 89 % 1016,6 hPa 0,0 l/m 7,7 km/h (2 Bft) W 267 0 min 0,000 mm 0,0 UV-I 66 W/m 17,0 C 18,3 C 14,5 km/h (3 Bft) 98,11 %
09.08.2016 09:12 18,9 C 90 % 1016,6 hPa 0,0 l/m 8,2 km/h (2 Bft) W-SW 238 0 min 0,000 mm 0,0 UV-I 49 W/m 17,2 C 18,1 C 16,1 km/h (3 Bft) 100,00 %
09.08.2016 09:14 18,9 C 89 % 1016,7 hPa 0,0 l/m 8,4 km/h (2 Bft) W 264 0 min 0,000 mm 0,0 UV-I 42 W/m 17,0 C 18,0 C 12,9 km/h (3 Bft) 100,00 %
09.08.2016 09:16 18,8 C 89 % 1016,7 hPa 0,0 l/m 7,9 km/h (2 Bft) W-SW 256 0 min 0,000 mm 0,0 UV-I 38 W/m 16,9 C 18,1 C 11,3 km/h (2 Bft) 100,00 %
09.08.2016 09:18 18,8 C 90 % 1016,7 hPa 0,0 l/m 8,2 km/h (2 Bft) W-NW 282 0 min 0,000 mm 0,0 UV-I 31 W/m 17,1 C 18,0 C 14,5 km/h (3 Bft) 98,00 %
09.08.2016 09:20 18,7 C 90 % 1016,8 hPa 0,0 l/m 12,5 km/h (3 Bft) W 271 0 min 0,000 mm 0,0 UV-I 25 W/m 17,0 C 16,4 C 19,3 km/h (3 Bft) 96,00 %
09.08.2016 09:22 18,7 C 90 % 1016,8 hPa 0,0 l/m 8,6 km/h (2 Bft) W 275 0 min 0,000 mm 0,0 UV-I 25 W/m 17,0 C 17,7 C 16,1 km/h (3 Bft) 98,00 %
09.08.2016 09:24 18,6 C 90 % 1016,8 hPa 0,0 l/m 11,7 km/h (2 Bft) W 264 0 min 0,000 mm 0,0 UV-I 24 W/m 16,9 C 16,5 C 17,7 km/h (3 Bft) 97,37 %
09.08.2016 09:26 18,6 C 90 % 1016,8 hPa 0,0 l/m 13,2 km/h (3 Bft) SW 227 0 min 0,000 mm 0,0 UV-I 24 W/m 16,9 C 16,1 C 22,5 km/h (4 Bft) 96,23 %
09.08.2016 09:28 18,5 C 89 % 1016,8 hPa 0,0 l/m 12,5 km/h (3 Bft) W 259 0 min 0,000 mm 0,0 UV-I 30 W/m 16,7 C 16,1 C 20,9 km/h (4 Bft) 92,11 %
09.08.2016 09:30 18,4 C 89 % 1016,9 hPa 0,0 l/m 12,4 km/h (3 Bft) W 261 0 min 0,000 mm 0,0 UV-I 37 W/m 16,6 C 16,1 C 20,9 km/h (4 Bft) 98,21 %
09.08.2016 09:32 18,4 C 89 % 1016,9 hPa 0,0 l/m 9,8 km/h (2 Bft) W 278 0 min 0,000 mm 0,0 UV-I 46 W/m 16,6 C 16,9 C 17,7 km/h (3 Bft) 92,11 %
09.08.2016 09:34 18,3 C 90 % 1017,0 hPa 0,0 l/m 9,8 km/h (2 Bft) W 261 0 min 0,000 mm 0,0 UV-I 55 W/m 16,6 C 16,8 C 14,5 km/h (3 Bft) 94,00 %
09.08.2016 09:36 18,3 C 90 % 1016,9 hPa 0,0 l/m 9,4 km/h (2 Bft) W 272 0 min 0,000 mm 0,0 UV-I 67 W/m 16,6 C 17,0 C 16,1 km/h (3 Bft) 92,45 %
09.08.2016 09:38 18,2 C 90 % 1017,0 hPa 0,0 l/m 8,6 km/h (2 Bft) W-SW 253 0 min 0,000 mm 0,0 UV-I 75 W/m 16,5 C 17,2 C 16,1 km/h (3 Bft) 97,37 %
09.08.2016 09:40 18,2 C 90 % 1017,0 hPa 0,0 l/m 8,5 km/h (2 Bft) SW 218 0 min 0,000 mm 0,0 UV-I 76 W/m 16,5 C 17,2 C 19,3 km/h (3 Bft) 96,43 %
09.08.2016 09:42 18,2 C 90 % 1017,0 hPa 0,0 l/m 8,4 km/h (2 Bft) W-SW 250 0 min 0,000 mm 0,0 UV-I 76 W/m 16,5 C 17,3 C 12,9 km/h (3 Bft) 97,73 %
09.08.2016 09:44 18,1 C 90 % 1017,1 hPa 0,0 l/m 8,7 km/h (2 Bft) W 265 0 min 0,000 mm 0,2 UV-I 75 W/m 16,4 C 17,1 C 12,9 km/h (3 Bft) 97,62 %
09.08.2016 09:46 18,1 C 90 % 1017,1 hPa 0,0 l/m 6,2 km/h (2 Bft) W 281 0 min 0,000 mm 0,0 UV-I 73 W/m 16,4 C 18,1 C 12,9 km/h (3 Bft) 94,00 %
09.08.2016 09:48 18,0 C 90 % 1017,0 hPa 0,0 l/m 6,5 km/h (2 Bft) SW 221 0 min 0,000 mm 0,0 UV-I 70 W/m 16,3 C 18,0 C 12,9 km/h (3 Bft) 98,00 %
09.08.2016 09:50 17,9 C 90 % 1017,1 hPa 0,0 l/m 5,3 km/h (1 Bft) W-SW 251 0 min 0,000 mm 0,0 UV-I 71 W/m 16,2 C 17,9 C 14,5 km/h (3 Bft) 97,37 %
09.08.2016 09:52 17,9 C 90 % 1017,1 hPa 0,0 l/m 6,8 km/h (2 Bft) W-SW 250 0 min 0,000 mm 0,4 UV-I 74 W/m 16,2 C 17,7 C 14,5 km/h (3 Bft) 100,00 %
09.08.2016 09:54 17,9 C 90 % 1017,1 hPa 0,0 l/m 6,0 km/h (2 Bft) W-SW 247 0 min 0,000 mm 0,5 UV-I 75 W/m 16,2 C 17,9 C 12,9 km/h (3 Bft) 98,00 %
09.08.2016 09:56 17,8 C 90 % 1017,1 hPa 0,0 l/m 7,4 km/h (2 Bft) W 269 0 min 0,000 mm 0,4 UV-I 74 W/m 16,1 C 17,3 C 14,5 km/h (3 Bft) 100,00 %
09.08.2016 09:58 17,8 C 90 % 1017,1 hPa 0,0 l/m 4,5 km/h (1 Bft) NW 304 0 min 0,000 mm 0,0 UV-I 69 W/m 16,1 C 17,8 C 12,9 km/h (3 Bft) 100,00 %
09.08.2016 10:00 17,8 C 89 % 1017,1 hPa 0,0 l/m 6,6 km/h (2 Bft) W-NW 296 0 min 0,050 mm 0,0 UV-I 62 W/m 16,0 C 17,7 C 12,9 km/h (3 Bft) 100,00 %
09.08.2016 10:02 17,8 C 90 % 1017,1 hPa 0,0 l/m 3,9 km/h (1 Bft) W 272 0 min 0,000 mm 0,0 UV-I 54 W/m 16,1 C 17,8 C 9,7 km/h (2 Bft) 100,00 %
09.08.2016 10:04 17,8 C 90 % 1017,2 hPa 0,0 l/m 4,3 km/h (1 Bft) W-SW 238 0 min 0,000 mm 0,0 UV-I 48 W/m 16,1 C 17,8 C 6,4 km/h (2 Bft) 95,74 %
09.08.2016 10:06 17,7 C 90 % 1017,2 hPa 0,0 l/m 5,4 km/h (1 Bft) W-SW 244 0 min 0,000 mm 0,0 UV-I 47 W/m 16,0 C 17,7 C 11,3 km/h (2 Bft) 100,00 %
09.08.2016 10:08 17,7 C 89 % 1017,2 hPa 0,0 l/m 7,4 km/h (2 Bft) W-SW 258 0 min 0,000 mm 0,0 UV-I 50 W/m 15,9 C 17,2 C 11,3 km/h (2 Bft) 100,00 %
09.08.2016 10:10 17,7 C 89 % 1017,2 hPa 0,0 l/m 8,0 km/h (2 Bft) W-SW 253 0 min 0,000 mm 0,0 UV-I 53 W/m 15,9 C 16,9 C 14,5 km/h (3 Bft) 100,00 %
09.08.2016 10:12 17,7 C 89 % 1017,2 hPa 0,0 l/m 5,5 km/h (1 Bft) W-SW 258 0 min 0,000 mm 0,0 UV-I 53 W/m 15,9 C 17,7 C 11,3 km/h (2 Bft) 100,00 %
09.08.2016 10:14 17,7 C 89 % 1017,2 hPa 0,0 l/m 5,4 km/h (1 Bft) W-SW 252 0 min 0,000 mm 0,0 UV-I 53 W/m 15,9 C 17,7 C 9,7 km/h (2 Bft) 97,37 %
09.08.2016 10:16 17,7 C 89 % 1017,3 hPa 0,0 l/m 6,4 km/h (2 Bft) W 259 0 min 0,000 mm 0,0 UV-I 51 W/m 15,9 C 17,7 C 11,3 km/h (2 Bft) 100,00 %
09.08.2016 10:18 17,6 C 89 % 1017,4 hPa 0,0 l/m 7,8 km/h (2 Bft) W 259 0 min 0,000 mm 0,0 UV-I 48 W/m 15,8 C 16,9 C 12,9 km/h (3 Bft) 100,00 %
09.08.2016 10:20 17,6 C 89 % 1017,4 hPa 0,0 l/m 7,0 km/h (2 Bft) W 263 0 min 0,000 mm 0,0 UV-I 45 W/m 15,8 C 17,3 C 11,3 km/h (2 Bft) 100,00 %
09.08.2016 10:22 17,6 C 89 % 1017,5 hPa 0,0 l/m 10,0 km/h (2 Bft) W 267 0 min 0,000 mm 0,0 UV-I 45 W/m 15,8 C 16,0 C 17,7 km/h (3 Bft) 100,00 %
09.08.2016 10:24 17,6 C 88 % 1017,6 hPa 0,0 l/m 12,2 km/h (2 Bft) W 264 0 min 0,000 mm 0,0 UV-I 48 W/m 15,6 C 15,2 C 20,9 km/h (4 Bft) 100,00 %
09.08.2016 10:26 17,6 C 88 % 1017,6 hPa 0,0 l/m 8,4 km/h (2 Bft) W-SW 248 0 min 0,000 mm 0,0 UV-I 46 W/m 15,6 C 16,7 C 17,7 km/h (3 Bft) 100,00 %
09.08.2016 10:28 17,6 C 87 % 1017,6 hPa 0,0 l/m 9,3 km/h (2 Bft) S-SW 200 0 min 0,000 mm 0,0 UV-I 52 W/m 15,4 C 16,3 C 16,1 km/h (3 Bft) 100,00 %
09.08.2016 10:30 17,6 C 87 % 1017,6 hPa 0,0 l/m 10,2 km/h (2 Bft) N 9 0 min 0,000 mm 0,0 UV-I 47 W/m 15,4 C 15,9 C 14,5 km/h (3 Bft) 95,12 %
09.08.2016 10:32 17,6 C 88 % 1017,6 hPa 0,0 l/m 4,6 km/h (1 Bft) SW 229 0 min 0,000 mm 0,0 UV-I 45 W/m 15,6 C 17,6 C 9,7 km/h (2 Bft) 100,00 %
09.08.2016 10:34 17,5 C 88 % 1017,6 hPa 0,0 l/m 6,9 km/h (2 Bft) W 271 0 min 0,000 mm 0,0 UV-I 54 W/m 15,5 C 17,3 C 12,9 km/h (3 Bft) 100,00 %
09.08.2016 10:36 17,5 C 88 % 1017,6 hPa 0,0 l/m 4,5 km/h (1 Bft) SW 236 0 min 0,000 mm 0,0 UV-I 62 W/m 15,5 C 17,5 C 6,4 km/h (2 Bft) 100,00 %
09.08.2016 10:38 17,5 C 89 % 1017,5 hPa 0,0 l/m 4,1 km/h (1 Bft) W 260 0 min 0,000 mm 0,3 UV-I 63 W/m 15,7 C 17,5 C 6,4 km/h (2 Bft) 100,00 %
09.08.2016 10:40 17,5 C 89 % 1017,5 hPa 0,0 l/m 4,1 km/h (1 Bft) W 262 0 min 0,000 mm 0,5 UV-I 66 W/m 15,7 C 17,5 C 9,7 km/h (2 Bft) 98,00 %
09.08.2016 10:42 17,5 C 90 % 1017,5 hPa 0,0 l/m 4,4 km/h (1 Bft) SW 233 0 min 0,000 mm 0,5 UV-I 71 W/m 15,8 C 17,5 C 6,4 km/h (2 Bft) 100,00 %
09.08.2016 10:44 17,4 C 90 % 1017,5 hPa 0,0 l/m 5,8 km/h (2 Bft) W 274 0 min 0,000 mm 0,3 UV-I 69 W/m 15,7 C 17,4 C 11,3 km/h (2 Bft) 100,00 %
09.08.2016 10:46 17,4 C 90 % 1017,6 hPa 0,0 l/m 4,8 km/h (1 Bft) W-NW 287 0 min 0,000 mm 0,2 UV-I 64 W/m 15,7 C 17,4 C 8,0 km/h (2 Bft) 97,44 %
09.08.2016 10:48 17,4 C 91 % 1017,6 hPa 0,0 l/m 7,8 km/h (2 Bft) W 262 0 min 0,000 mm 0,6 UV-I 80 W/m 15,9 C 16,7 C 12,9 km/h (3 Bft) 100,00 %
09.08.2016 10:50 17,4 C 91 % 1017,6 hPa 0,0 l/m 5,9 km/h (2 Bft) W-NW 282 0 min 0,000 mm 0,5 UV-I 77 W/m 15,9 C 17,4 C 9,7 km/h (2 Bft) 100,00 %
09.08.2016 10:52 17,4 C 91 % 1017,6 hPa 0,0 l/m 7,7 km/h (2 Bft) W 269 0 min 0,000 mm 0,6 UV-I 86 W/m 15,9 C 16,8 C 12,9 km/h (3 Bft) 100,00 %
09.08.2016 10:54 17,4 C 91 % 1017,5 hPa 0,0 l/m 4,9 km/h (1 Bft) W-NW 282 0 min 0,000 mm 0,6 UV-I 89 W/m 15,9 C 17,4 C 8,0 km/h (2 Bft) 100,00 %
09.08.2016 10:56 17,4 C 91 % 1017,6 hPa 0,0 l/m 7,6 km/h (2 Bft) W-SW 254 0 min 0,000 mm 0,6 UV-I 90 W/m 15,9 C 16,8 C 14,5 km/h (3 Bft) 100,00 %
09.08.2016 10:58 17,4 C 90 % 1017,5 hPa 0,0 l/m 9,2 km/h (2 Bft) W-SW 248 0 min 0,000 mm 0,6 UV-I 92 W/m 15,7 C 16,1 C 14,5 km/h (3 Bft) 100,00 %
09.08.2016 11:00 17,4 C 90 % 1017,5 hPa 0,0 l/m 7,0 km/h (2 Bft) W 271 0 min 0,051 mm 0,7 UV-I 96 W/m 15,7 C 17,1 C 11,3 km/h (2 Bft) 97,73 %
09.08.2016 11:02 17,4 C 90 % 1017,5 hPa 0,0 l/m 4,9 km/h (1 Bft) SW 217 0 min 0,000 mm 0,7 UV-I 98 W/m 15,7 C 17,4 C 9,7 km/h (2 Bft) 100,00 %
09.08.2016 11:04 17,4 C 91 % 1017,5 hPa 0,0 l/m 4,3 km/h (1 Bft) W 277 0 min 0,000 mm 0,7 UV-I 101 W/m 15,9 C 17,4 C 9,7 km/h (2 Bft) 100,00 %
09.08.2016 11:06 17,4 C 91 % 1017,5 hPa 0,0 l/m 7,9 km/h (2 Bft) W-SW 250 0 min 0,000 mm 0,8 UV-I 107 W/m 15,9 C 16,7 C 14,5 km/h (3 Bft) 100,00 %
09.08.2016 11:08 17,4 C 90 % 1017,5 hPa 0,0 l/m 6,8 km/h (2 Bft) W-SW 251 0 min 0,000 mm 0,9 UV-I 116 W/m 15,7 C 17,2 C 14,5 km/h (3 Bft) 100,00 %
09.08.2016 11:10 17,4 C 90 % 1017,6 hPa 0,0 l/m 8,4 km/h (2 Bft) W 277 0 min 0,000 mm 1,0 UV-I 133 W/m 15,7 C 16,4 C 11,3 km/h (2 Bft) 100,00 %
09.08.2016 11:12 17,4 C 90 % 1017,6 hPa 0,0 l/m 6,7 km/h (2 Bft) W-SW 253 0 min 0,000 mm 1,2 UV-I 152 W/m 15,7 C 17,3 C 11,3 km/h (2 Bft) 100,00 %
09.08.2016 11:14 17,4 C 90 % 1017,6 hPa 0,2 l/m 8,7 km/h (2 Bft) W 273 0 min 0,000 mm 1,2 UV-I 158 W/m 15,7 C 16,3 C 14,5 km/h (3 Bft) 100,00 %
09.08.2016 11:16 17,4 C 91 % 1017,7 hPa 0,0 l/m 5,8 km/h (2 Bft) W-SW 254 0 min 0,000 mm 1,1 UV-I 144 W/m 15,9 C 17,4 C 12,9 km/h (3 Bft) 100,00 %
09.08.2016 11:18 17,4 C 90 % 1017,7 hPa 0,2 l/m 8,7 km/h (2 Bft) W-SW 238 0 min 0,000 mm 1,0 UV-I 124 W/m 15,7 C 16,3 C 16,1 km/h (3 Bft) 97,87 %
09.08.2016 11:20 17,3 C 91 % 1017,7 hPa 0,0 l/m 6,7 km/h (2 Bft) W-SW 238 0 min 0,000 mm 0,9 UV-I 118 W/m 15,8 C 17,2 C 11,3 km/h (2 Bft) 94,00 %
09.08.2016 11:22 17,3 C 91 % 1017,6 hPa 0,0 l/m 4,6 km/h (1 Bft) W 268 0 min 0,000 mm 1,1 UV-I 139 W/m 15,8 C 17,3 C 8,0 km/h (2 Bft) 97,37 %
09.08.2016 11:24 17,2 C 92 % 1017,6 hPa 0,0 l/m 3,9 km/h (1 Bft) W 280 0 min 0,000 mm 1,1 UV-I 143 W/m 15,9 C 17,2 C 6,4 km/h (2 Bft) 98,11 %
09.08.2016 11:26 17,3 C 92 % 1017,5 hPa 0,0 l/m 5,8 km/h (2 Bft) W 265 0 min 0,000 mm 1,1 UV-I 142 W/m 16,0 C 17,3 C 11,3 km/h (2 Bft) 97,56 %
09.08.2016 11:28 17,3 C 92 % 1017,5 hPa 0,0 l/m 4,2 km/h (1 Bft) W-SW 252 0 min 0,000 mm 1,1 UV-I 139 W/m 16,0 C 17,3 C 8,0 km/h (2 Bft) 98,00 %
09.08.2016 11:30 17,3 C 92 % 1017,6 hPa 0,0 l/m 6,7 km/h (2 Bft) W-SW 245 0 min 0,000 mm 1,1 UV-I 141 W/m 16,0 C 17,2 C 9,7 km/h (2 Bft) 98,00 %
09.08.2016 11:32 17,3 C 92 % 1017,6 hPa 0,0 l/m 8,5 km/h (2 Bft) W-SW 244 0 min 0,000 mm 1,2 UV-I 145 W/m 16,0 C 16,3 C 12,9 km/h (3 Bft) 98,00 %
09.08.2016 11:34 17,3 C 92 % 1017,7 hPa 0,0 l/m 9,1 km/h (2 Bft) W-SW 245 0 min 0,000 mm 1,1 UV-I 142 W/m 16,0 C 16,0 C 12,9 km/h (3 Bft) 95,74 %
09.08.2016 11:36 17,3 C 93 % 1017,7 hPa 0,0 l/m 5,6 km/h (1 Bft) W 259 0 min 0,000 mm 0,8 UV-I 103 W/m 16,2 C 17,3 C 9,7 km/h (2 Bft) 100,00 %
09.08.2016 11:38 17,3 C 93 % 1017,7 hPa 0,0 l/m 7,4 km/h (2 Bft) S-SW 193 0 min 0,000 mm 0,5 UV-I 68 W/m 16,2 C 16,8 C 12,9 km/h (3 Bft) 95,31 %
09.08.2016 11:40 17,3 C 92 % 1017,7 hPa 0,0 l/m 10,7 km/h (2 Bft) SW 221 0 min 0,000 mm 0,5 UV-I 75 W/m 16,0 C 15,4 C 19,3 km/h (3 Bft) 97,62 %
09.08.2016 11:42 17,2 C 92 % 1017,7 hPa 0,0 l/m 12,3 km/h (3 Bft) S-SW 206 0 min 0,000 mm 0,7 UV-I 94 W/m 15,9 C 14,7 C 19,3 km/h (3 Bft) 98,18 %
09.08.2016 11:44 17,2 C 93 % 1017,8 hPa 0,0 l/m 10,9 km/h (2 Bft) S-SW 192 0 min 0,000 mm 0,9 UV-I 116 W/m 16,1 C 15,2 C 16,1 km/h (3 Bft) 94,87 %
09.08.2016 11:46 17,2 C 93 % 1017,8 hPa 0,0 l/m 8,8 km/h (2 Bft) S-SW 207 0 min 0,000 mm 1,0 UV-I 127 W/m 16,1 C 16,0 C 16,1 km/h (3 Bft) 95,74 %
09.08.2016 11:48 17,2 C 93 % 1017,8 hPa 0,0 l/m 6,6 km/h (2 Bft) S-SW 201 0 min 0,000 mm 1,0 UV-I 132 W/m 16,1 C 17,1 C 12,9 km/h (3 Bft) 98,11 %
09.08.2016 11:50 17,2 C 93 % 1017,8 hPa 0,0 l/m 7,6 km/h (2 Bft) SW 221 0 min 0,000 mm 1,1 UV-I 138 W/m 16,1 C 16,6 C 12,9 km/h (3 Bft) 97,56 %
09.08.2016 11:52 17,2 C 94 % 1017,8 hPa 0,0 l/m 8,8 km/h (2 Bft) SW 219 0 min 0,000 mm 1,2 UV-I 155 W/m 16,2 C 16,0 C 14,5 km/h (3 Bft) 98,11 %
09.08.2016 11:54 17,2 C 93 % 1017,8 hPa 0,0 l/m 7,3 km/h (2 Bft) W-SW 252 0 min 0,000 mm 1,4 UV-I 174 W/m 16,1 C 16,8 C 12,9 km/h (3 Bft) 100,00 %
09.08.2016 11:56 17,3 C 93 % 1017,8 hPa 0,0 l/m 6,9 km/h (2 Bft) SW 216 0 min 0,000 mm 1,5 UV-I 188 W/m 16,2 C 17,1 C 11,3 km/h (2 Bft) 100,00 %
09.08.2016 11:58 17,3 C 93 % 1017,8 hPa 0,0 l/m 6,4 km/h (2 Bft) SW 232 0 min 0,000 mm 1,6 UV-I 198 W/m 16,2 C 17,3 C 11,3 km/h (2 Bft) 100,00 %
09.08.2016 12:00 17,4 C 93 % 1017,7 hPa 0,0 l/m 10,8 km/h (2 Bft) SW 224 0 min 0,000 mm 1,6 UV-I 199 W/m 16,3 C 15,5 C 16,1 km/h (3 Bft) 98,00 %
09.08.2016 12:02 17,4 C 92 % 1017,7 hPa 0,0 l/m 11,9 km/h (2 Bft) W-SW 241 0 min 0,076 mm 1,6 UV-I 199 W/m 16,1 C 15,1 C 19,3 km/h (3 Bft) 100,00 %
09.08.2016 12:04 17,4 C 92 % 1017,7 hPa 0,0 l/m 13,0 km/h (3 Bft) S 186 0 min 0,000 mm 1,6 UV-I 200 W/m 16,1 C 14,7 C 17,7 km/h (3 Bft) 100,00 %
09.08.2016 12:06 17,4 C 92 % 1017,7 hPa 0,0 l/m 9,9 km/h (2 Bft) SW 232 0 min 0,000 mm 1,6 UV-I 200 W/m 16,1 C 15,8 C 16,1 km/h (3 Bft) 100,00 %
09.08.2016 12:08 17,3 C 91 % 1017,7 hPa 0,0 l/m 5,9 km/h (2 Bft) W-SW 248 0 min 0,000 mm 1,6 UV-I 199 W/m 15,8 C 17,3 C 11,3 km/h (2 Bft) 98,00 %
09.08.2016 12:10 17,4 C 91 % 1017,6 hPa 0,0 l/m 11,7 km/h (2 Bft) S-SW 210 0 min 0,000 mm 1,6 UV-I 197 W/m 15,9 C 15,1 C 19,3 km/h (3 Bft) 100,00 %
09.08.2016 12:12 17,4 C 91 % 1017,7 hPa 0,0 l/m 9,6 km/h (2 Bft) W-SW 242 0 min 0,000 mm 1,7 UV-I 200 W/m 15,9 C 15,9 C 14,5 km/h (3 Bft) 100,00 %
09.08.2016 12:14 17,4 C 91 % 1017,6 hPa 0,0 l/m 6,9 km/h (2 Bft) SW 219 0 min 0,000 mm 1,8 UV-I 210 W/m 15,9 C 17,2 C 12,9 km/h (3 Bft) 100,00 %
09.08.2016 12:16 17,4 C 91 % 1017,7 hPa 0,2 l/m 9,1 km/h (2 Bft) SW 222 0 min 0,000 mm 2,0 UV-I 229 W/m 15,9 C 16,1 C 14,5 km/h (3 Bft) 100,00 %
09.08.2016 12:18 17,6 C 92 % 1017,7 hPa 0,0 l/m 10,7 km/h (2 Bft) W 273 0 min 0,000 mm 2,1 UV-I 248 W/m 16,3 C 15,7 C 17,7 km/h (3 Bft) 97,56 %
09.08.2016 12:20 17,6 C 91 % 1017,7 hPa 0,0 l/m 11,6 km/h (2 Bft) W-SW 250 0 min 0,000 mm 2,2 UV-I 259 W/m 16,1 C 15,4 C 17,7 km/h (3 Bft) 100,00 %
09.08.2016 12:22 17,6 C 91 % 1017,7 hPa 0,0 l/m 11,4 km/h (2 Bft) W-SW 244 0 min 0,000 mm 2,2 UV-I 258 W/m 16,1 C 15,5 C 16,1 km/h (3 Bft) 100,00 %
09.08.2016 12:24 17,6 C 92 % 1017,7 hPa 0,0 l/m 9,8 km/h (2 Bft) W 262 0 min 0,000 mm 2,1 UV-I 255 W/m 16,3 C 16,1 C 16,1 km/h (3 Bft) 100,00 %
09.08.2016 12:26 17,6 C 91 % 1017,7 hPa 0,0 l/m 12,5 km/h (3 Bft) W-SW 240 0 min 0,000 mm 2,1 UV-I 253 W/m 16,1 C 15,1 C 19,3 km/h (3 Bft) 97,73 %
09.08.2016 12:28 17,6 C 91 % 1017,7 hPa 0,0 l/m 12,5 km/h (3 Bft) W-SW 250 0 min 0,000 mm 2,1 UV-I 254 W/m 16,1 C 15,1 C 19,3 km/h (3 Bft) 100,00 %
09.08.2016 12:30 17,6 C 90 % 1017,7 hPa 0,0 l/m 12,3 km/h (3 Bft) W-SW 257 0 min 0,000 mm 2,1 UV-I 257 W/m 15,9 C 15,2 C 17,7 km/h (3 Bft) 100,00 %
09.08.2016 12:32 17,6 C 90 % 1017,7 hPa 0,0 l/m 11,9 km/h (2 Bft) W-SW 239 0 min 0,000 mm 2,1 UV-I 255 W/m 15,9 C 15,3 C 19,3 km/h (3 Bft) 100,00 %
09.08.2016 12:34 17,7 C 91 % 1017,7 hPa 0,0 l/m 9,7 km/h (2 Bft) S-SW 202 0 min 0,000 mm 2,1 UV-I 250 W/m 16,2 C 16,2 C 16,1 km/h (3 Bft) 98,11 %
09.08.2016 12:36 17,7 C 90 % 1017,7 hPa 0,0 l/m 13,3 km/h (3 Bft) W-SW 257 0 min 0,000 mm 2,1 UV-I 252 W/m 16,0 C 15,0 C 19,3 km/h (3 Bft) 100,00 %
09.08.2016 12:38 17,7 C 89 % 1017,7 hPa 0,0 l/m 12,6 km/h (3 Bft) W-SW 243 0 min 0,000 mm 2,1 UV-I 247 W/m 15,9 C 15,2 C 19,3 km/h (3 Bft) 98,46 %
09.08.2016 12:40 17,7 C 91 % 1017,7 hPa 0,0 l/m 10,9 km/h (2 Bft) W-SW 251 0 min 0,000 mm 1,9 UV-I 229 W/m 16,2 C 15,8 C 16,1 km/h (3 Bft) 100,00 %
09.08.2016 12:42 17,8 C 90 % 1017,6 hPa 0,0 l/m 11,6 km/h (2 Bft) W-SW 251 0 min 0,000 mm 1,8 UV-I 214 W/m 16,1 C 15,6 C 17,7 km/h (3 Bft) 100,00 %
09.08.2016 12:44 17,8 C 90 % 1017,6 hPa 0,0 l/m 10,5 km/h (2 Bft) W-SW 256 0 min 0,000 mm 1,7 UV-I 205 W/m 16,1 C 16,0 C 14,5 km/h (3 Bft) 98,00 %
09.08.2016 12:46 17,8 C 91 % 1017,6 hPa 0,0 l/m 8,1 km/h (2 Bft) SW 234 0 min 0,000 mm 1,7 UV-I 202 W/m 16,3 C 17,0 C 12,9 km/h (3 Bft) 100,00 %
09.08.2016 12:48 17,9 C 90 % 1017,5 hPa 0,0 l/m 7,9 km/h (2 Bft) W-SW 252 0 min 0,000 mm 1,7 UV-I 202 W/m 16,2 C 17,2 C 12,9 km/h (3 Bft) 100,00 %
09.08.2016 12:50 17,9 C 91 % 1017,6 hPa 0,0 l/m 9,9 km/h (2 Bft) W-NW 295 0 min 0,000 mm 1,7 UV-I 202 W/m 16,4 C 16,4 C 14,5 km/h (3 Bft) 100,00 %
09.08.2016 12:52 17,9 C 90 % 1017,6 hPa 0,0 l/m 10,7 km/h (2 Bft) SW 232 0 min 0,000 mm 1,7 UV-I 198 W/m 16,2 C 16,1 C 16,1 km/h (3 Bft) 100,00 %
09.08.2016 12:54 17,8 C 89 % 1017,5 hPa 0,0 l/m 13,6 km/h (3 Bft) W 261 0 min 0,000 mm 1,6 UV-I 191 W/m 16,0 C 15,0 C 20,9 km/h (4 Bft) 100,00 %
09.08.2016 12:56 17,7 C 88 % 1017,5 hPa 0,0 l/m 13,3 km/h (3 Bft) W-SW 254 0 min 0,000 mm 1,5 UV-I 182 W/m 15,7 C 15,0 C 19,3 km/h (3 Bft) 98,00 %
09.08.2016 12:58 17,7 C 89 % 1017,6 hPa 0,0 l/m 9,0 km/h (2 Bft) W-SW 243 0 min 0,000 mm 1,4 UV-I 175 W/m 15,9 C 16,5 C 14,5 km/h (3 Bft) 100,00 %
09.08.2016 13:00 17,7 C 90 % 1017,6 hPa 0,0 l/m 13,1 km/h (3 Bft) SW 220 0 min 0,000 mm 1,4 UV-I 170 W/m 16,0 C 15,0 C 19,3 km/h (3 Bft) 100,00 %
09.08.2016 13:02 17,7 C 90 % 1017,6 hPa 0,0 l/m 10,7 km/h (2 Bft) W-SW 255 0 min 0,127 mm 1,4 UV-I 167 W/m 16,0 C 15,8 C 19,3 km/h (3 Bft) 100,00 %
09.08.2016 13:04 17,7 C 89 % 1017,5 hPa 0,0 l/m 14,3 km/h (3 Bft) W-SW 240 0 min 0,000 mm 1,4 UV-I 165 W/m 15,9 C 14,7 C 19,3 km/h (3 Bft) 100,00 %
09.08.2016 13:06 17,7 C 89 % 1017,6 hPa 0,0 l/m 11,0 km/h (2 Bft) SW 236 0 min 0,000 mm 1,4 UV-I 162 W/m 15,9 C 15,7 C 17,7 km/h (3 Bft) 97,73 %
09.08.2016 13:08 17,7 C 89 % 1017,5 hPa 0,0 l/m 12,9 km/h (3 Bft) W-SW 258 0 min 0,000 mm 1,3 UV-I 160 W/m 15,9 C 15,1 C 19,3 km/h (3 Bft) 100,00 %
09.08.2016 13:10 17,6 C 89 % 1017,5 hPa 0,0 l/m 11,6 km/h (2 Bft) W 260 0 min 0,000 mm 1,3 UV-I 156 W/m 15,8 C 15,4 C 14,5 km/h (3 Bft) 97,37 %
09.08.2016 13:12 17,6 C 89 % 1017,6 hPa 0,0 l/m 9,9 km/h (2 Bft) W 261 0 min 0,000 mm 1,3 UV-I 152 W/m 15,8 C 16,0 C 16,1 km/h (3 Bft) 100,00 %
09.08.2016 13:14 17,6 C 89 % 1017,5 hPa 0,0 l/m 10,1 km/h (2 Bft) W-SW 254 0 min 0,000 mm 1,2 UV-I 146 W/m 15,8 C 16,0 C 14,5 km/h (3 Bft) 100,00 %
09.08.2016 13:16 17,6 C 89 % 1017,4 hPa 0,0 l/m 9,6 km/h (2 Bft) W-NW 287 0 min 0,000 mm 1,2 UV-I 139 W/m 15,8 C 16,1 C 16,1 km/h (3 Bft) 98,00 %
09.08.2016 13:18 17,6 C 88 % 1017,4 hPa 0,0 l/m 8,4 km/h (2 Bft) W 273 0 min 0,000 mm 1,1 UV-I 131 W/m 15,6 C 16,7 C 16,1 km/h (3 Bft) 97,73 %
09.08.2016 13:20 17,6 C 89 % 1017,4 hPa 0,0 l/m 7,9 km/h (2 Bft) W-NW 287 0 min 0,000 mm 1,0 UV-I 126 W/m 15,8 C 16,9 C 14,5 km/h (3 Bft) 97,56 %
09.08.2016 13:22 17,6 C 89 % 1017,4 hPa 0,0 l/m 5,6 km/h (1 Bft) W 265 0 min 0,000 mm 1,0 UV-I 121 W/m 15,8 C 17,6 C 12,9 km/h (3 Bft) 94,00 %
09.08.2016 13:24 17,6 C 89 % 1017,4 hPa 0,0 l/m 6,5 km/h (2 Bft) W-SW 238 0 min 0,000 mm 1,0 UV-I 115 W/m 15,8 C 17,6 C 12,9 km/h (3 Bft) 92,00 %
09.08.2016 13:26 17,6 C 89 % 1017,5 hPa 0,0 l/m 8,4 km/h (2 Bft) W 267 0 min 0,000 mm 0,9 UV-I 112 W/m 15,8 C 16,7 C 14,5 km/h (3 Bft) 97,73 %
09.08.2016 13:28 17,6 C 88 % 1017,5 hPa 0,0 l/m 9,2 km/h (2 Bft) W-SW 257 0 min 0,000 mm 0,9 UV-I 109 W/m 15,6 C 16,3 C 14,5 km/h (3 Bft) 97,87 %
09.08.2016 13:30 17,6 C 89 % 1017,5 hPa 0,0 l/m 5,9 km/h (2 Bft) W-SW 241 0 min 0,000 mm 0,9 UV-I 105 W/m 15,8 C 17,6 C 9,7 km/h (2 Bft) 97,87 %
09.08.2016 13:32 17,6 C 89 % 1017,5 hPa 0,0 l/m 7,8 km/h (2 Bft) W-SW 257 0 min 0,000 mm 0,9 UV-I 104 W/m 15,8 C 16,9 C 14,5 km/h (3 Bft) 98,00 %
09.08.2016 13:34 17,6 C 90 % 1017,5 hPa 0,0 l/m 5,4 km/h (1 Bft) W 260 0 min 0,000 mm 0,8 UV-I 101 W/m 15,9 C 17,6 C 9,7 km/h (2 Bft) 96,00 %
09.08.2016 13:36 17,6 C 90 % 1017,5 hPa 0,0 l/m 11,9 km/h (2 Bft) W-SW 257 0 min 0,000 mm 0,8 UV-I 98 W/m 15,9 C 15,3 C 16,1 km/h (3 Bft) 97,37 %
09.08.2016 13:38 17,6 C 90 % 1017,6 hPa 0,0 l/m 11,1 km/h (2 Bft) W 272 0 min 0,000 mm 0,8 UV-I 97 W/m 15,9 C 15,6 C 17,7 km/h (3 Bft) 94,00 %
09.08.2016 13:40 17,5 C 89 % 1017,6 hPa 0,0 l/m 10,8 km/h (2 Bft) W 263 0 min 0,000 mm 0,8 UV-I 97 W/m 15,7 C 15,6 C 16,1 km/h (3 Bft) 98,00 %
09.08.2016 13:42 17,5 C 89 % 1017,5 hPa 0,0 l/m 12,0 km/h (2 Bft) W-SW 248 0 min 0,000 mm 0,8 UV-I 96 W/m 15,7 C 15,2 C 17,7 km/h (3 Bft) 95,74 %
09.08.2016 13:44 17,4 C 90 % 1017,5 hPa 0,0 l/m 6,4 km/h (2 Bft) SW 236 0 min 0,000 mm 0,8 UV-I 95 W/m 15,7 C 17,4 C 11,3 km/h (2 Bft) 97,92 %
09.08.2016 13:46 17,4 C 90 % 1017,5 hPa 0,0 l/m 5,7 km/h (1 Bft) W-SW 241 0 min 0,000 mm 0,7 UV-I 93 W/m 15,7 C 17,4 C 11,3 km/h (2 Bft) 94,74 %
09.08.2016 13:48 17,4 C 91 % 1017,4 hPa 0,0 l/m 4,0 km/h (1 Bft) W-SW 258 0 min 0,000 mm 0,7 UV-I 92 W/m 15,9 C 17,4 C 6,4 km/h (2 Bft) 98,11 %
09.08.2016 13:50 17,4 C 90 % 1017,5 hPa 0,0 l/m 8,5 km/h (2 Bft) W 259 0 min 0,000 mm 0,7 UV-I 88 W/m 15,7 C 16,4 C 16,1 km/h (3 Bft) 97,87 %
09.08.2016 13:52 17,3 C 90 % 1017,5 hPa 0,0 l/m 6,3 km/h (2 Bft) W 273 0 min 0,000 mm 0,7 UV-I 84 W/m 15,6 C 17,3 C 11,3 km/h (2 Bft) 100,00 %
09.08.2016 13:54 17,3 C 91 % 1017,5 hPa 0,0 l/m 7,3 km/h (2 Bft) W 263 0 min 0,000 mm 0,6 UV-I 82 W/m 15,8 C 16,9 C 11,3 km/h (2 Bft) 100,00 %
09.08.2016 13:56 17,3 C 91 % 1017,5 hPa 0,0 l/m 8,6 km/h (2 Bft) W-SW 246 0 min 0,000 mm 0,6 UV-I 80 W/m 15,8 C 16,2 C 12,9 km/h (3 Bft) 98,00 %
09.08.2016 13:58 17,2 C 91 % 1017,5 hPa 0,0 l/m 5,0 km/h (1 Bft) W-SW 257 0 min 0,000 mm 0,6 UV-I 79 W/m 15,7 C 17,2 C 8,0 km/h (2 Bft) 100,00 %
09.08.2016 14:00 17,2 C 91 % 1017,5 hPa 0,2 l/m 4,5 km/h (1 Bft) SW 221 0 min 0,077 mm 0,6 UV-I 78 W/m 15,7 C 17,2 C 6,4 km/h (2 Bft) 100,00 %
09.08.2016 14:02 17,2 C 92 % 1017,5 hPa 0,0 l/m 3,9 km/h (1 Bft) W-SW 250 0 min 0,000 mm 0,6 UV-I 77 W/m 15,9 C 17,2 C 6,4 km/h (2 Bft) 100,00 %
09.08.2016 14:04 17,1 C 92 % 1017,6 hPa 0,0 l/m 6,7 km/h (2 Bft) W-SW 255 0 min 0,000 mm 0,6 UV-I 76 W/m 15,8 C 17,0 C 12,9 km/h (3 Bft) 96,00 %
09.08.2016 14:06 17,1 C 92 % 1017,6 hPa 0,0 l/m 7,7 km/h (2 Bft) W-SW 237 0 min 0,000 mm 0,6 UV-I 77 W/m 15,8 C 16,5 C 12,9 km/h (3 Bft) 100,00 %
09.08.2016 14:08 17,1 C 93 % 1017,6 hPa 0,0 l/m 4,4 km/h (1 Bft) W-SW 242 0 min 0,000 mm 0,6 UV-I 77 W/m 16,0 C 17,1 C 6,4 km/h (2 Bft) 100,00 %
09.08.2016 14:10 17,1 C 93 % 1017,6 hPa 0,2 l/m 5,3 km/h (1 Bft) W-SW 250 0 min 0,000 mm 0,6 UV-I 79 W/m 16,0 C 17,1 C 8,0 km/h (2 Bft) 100,00 %
09.08.2016 14:12 17,0 C 93 % 1017,5 hPa 0,2 l/m 3,9 km/h (1 Bft) W 261 0 min 0,000 mm 0,6 UV-I 80 W/m 15,9 C 17,0 C 6,4 km/h (2 Bft) 100,00 %
09.08.2016 14:14 17,0 C 93 % 1017,5 hPa 0,0 l/m 4,0 km/h (1 Bft) W-NW 291 0 min 0,000 mm 0,7 UV-I 84 W/m 15,9 C 17,0 C 6,4 km/h (2 Bft) 100,00 %
09.08.2016 14:16 16,9 C 93 % 1017,6 hPa 0,0 l/m 4,8 km/h (1 Bft) W 259 0 min 0,000 mm 0,7 UV-I 89 W/m 15,8 C 16,9 C 6,4 km/h (2 Bft) 100,00 %
09.08.2016 14:18 16,9 C 93 % 1017,6 hPa 0,2 l/m 6,3 km/h (2 Bft) W 259 0 min 0,000 mm 0,8 UV-I 95 W/m 15,8 C 16,9 C 11,3 km/h (2 Bft) 100,00 %
09.08.2016 14:20 16,9 C 94 % 1017,6 hPa 0,0 l/m 7,2 km/h (2 Bft) W-SW 246 0 min 0,000 mm 0,8 UV-I 98 W/m 15,9 C 16,5 C 11,3 km/h (2 Bft) 100,00 %
09.08.2016 14:22 16,9 C 93 % 1017,6 hPa 0,2 l/m 8,7 km/h (2 Bft) W-SW 244 0 min 0,000 mm 0,8 UV-I 101 W/m 15,8 C 15,8 C 12,9 km/h (3 Bft) 100,00 %
09.08.2016 14:24 16,9 C 94 % 1017,6 hPa 0,0 l/m 6,8 km/h (2 Bft) W 262 0 min 0,000 mm 0,8 UV-I 105 W/m 15,9 C 16,7 C 9,7 km/h (2 Bft) 100,00 %
09.08.2016 14:26 16,8 C 93 % 1017,5 hPa 0,2 l/m 8,3 km/h (2 Bft) W 261 0 min 0,000 mm 0,8 UV-I 108 W/m 15,7 C 15,8 C 12,9 km/h (3 Bft) 100,00 %
09.08.2016 14:28 16,8 C 94 % 1017,6 hPa 0,2 l/m 7,8 km/h (2 Bft) W 279 0 min 0,000 mm 0,9 UV-I 109 W/m 15,8 C 16,1 C 11,3 km/h (2 Bft) 100,00 %
09.08.2016 14:30 16,8 C 94 % 1017,6 hPa 0,0 l/m 5,7 km/h (1 Bft) W 265 0 min 0,000 mm 0,9 UV-I 111 W/m 15,8 C 16,8 C 9,7 km/h (2 Bft) 100,00 %
09.08.2016 14:32 16,8 C 94 % 1017,6 hPa 0,2 l/m 3,8 km/h (1 Bft) W 265 0 min 0,000 mm 0,9 UV-I 114 W/m 15,8 C 16,8 C 6,4 km/h (2 Bft) 98,11 %
09.08.2016 14:34 16,8 C 95 % 1017,7 hPa 0,0 l/m 5,0 km/h (1 Bft) W-SW 252 0 min 0,000 mm 0,9 UV-I 116 W/m 16,0 C 16,8 C 11,3 km/h (2 Bft) 100,00 %
09.08.2016 14:36 16,9 C 95 % 1017,6 hPa 0,0 l/m 4,0 km/h (1 Bft) W-SW 248 0 min 0,000 mm 0,9 UV-I 117 W/m 16,1 C 16,9 C 6,4 km/h (2 Bft) 100,00 %
09.08.2016 14:38 16,9 C 95 % 1017,7 hPa 0,2 l/m 3,0 km/h (1 Bft) W-SW 238 0 min 0,000 mm 0,9 UV-I 120 W/m 16,1 C 16,9 C 4,8 km/h (1 Bft) 100,00 %
09.08.2016 14:40 16,9 C 95 % 1017,6 hPa 0,0 l/m 4,2 km/h (1 Bft) W-SW 244 0 min 0,000 mm 1,0 UV-I 126 W/m 16,1 C 16,9 C 6,4 km/h (2 Bft) 100,00 %
09.08.2016 14:42 16,9 C 95 % 1017,6 hPa 0,0 l/m 3,3 km/h (1 Bft) W-NW 296 0 min 0,000 mm 1,0 UV-I 134 W/m 16,1 C 16,9 C 4,8 km/h (1 Bft) 100,00 %
09.08.2016 14:44 16,9 C 95 % 1017,7 hPa 0,0 l/m 5,9 km/h (2 Bft) W 272 0 min 0,000 mm 1,1 UV-I 145 W/m 16,1 C 16,9 C 12,9 km/h (3 Bft) 100,00 %
09.08.2016 14:46 16,8 C 95 % 1017,6 hPa 0,0 l/m 5,5 km/h (1 Bft) W-SW 258 0 min 0,000 mm 1,2 UV-I 157 W/m 16,0 C 16,8 C 9,7 km/h (2 Bft) 97,87 %
09.08.2016 14:48 16,8 C 95 % 1017,6 hPa 0,2 l/m 7,0 km/h (2 Bft) W-NW 294 0 min 0,000 mm 1,3 UV-I 169 W/m 16,0 C 16,5 C 12,9 km/h (3 Bft) 98,00 %
09.08.2016 14:50 16,8 C 95 % 1017,6 hPa 0,0 l/m 5,9 km/h (2 Bft) W-SW 248 0 min 0,000 mm 1,4 UV-I 179 W/m 16,0 C 16,8 C 11,3 km/h (2 Bft) 100,00 %
09.08.2016 14:52 16,8 C 94 % 1017,7 hPa 0,0 l/m 8,4 km/h (2 Bft) W-SW 257 0 min 0,000 mm 1,4 UV-I 186 W/m 15,8 C 15,8 C 14,5 km/h (3 Bft) 100,00 %
09.08.2016 14:54 16,9 C 95 % 1017,6 hPa 0,0 l/m 4,1 km/h (1 Bft) W-SW 253 0 min 0,000 mm 1,5 UV-I 191 W/m 16,1 C 16,9 C 6,4 km/h (2 Bft) 100,00 %
09.08.2016 14:56 17,0 C 95 % 1017,6 hPa 0,0 l/m 5,6 km/h (1 Bft) W 262 0 min 0,000 mm 1,5 UV-I 192 W/m 16,2 C 17,0 C 12,9 km/h (3 Bft) 100,00 %
09.08.2016 14:58 17,0 C 94 % 1017,6 hPa 0,2 l/m 8,4 km/h (2 Bft) W-SW 244 0 min 0,000 mm 1,5 UV-I 195 W/m 16,0 C 16,0 C 12,9 km/h (3 Bft) 97,44 %
09.08.2016 15:00 17,0 C 94 % 1017,6 hPa 0,0 l/m 9,9 km/h (2 Bft) W 281 0 min 0,076 mm 1,5 UV-I 193 W/m 16,0 C 15,4 C 16,1 km/h (3 Bft) 100,00 %
09.08.2016 15:02 17,1 C 94 % 1017,6 hPa 0,0 l/m 6,8 km/h (2 Bft) W-SW 252 0 min 0,000 mm 1,4 UV-I 192 W/m 16,1 C 16,9 C 11,3 km/h (2 Bft) 98,00 %
09.08.2016 15:04 17,1 C 94 % 1017,6 hPa 0,0 l/m 8,4 km/h (2 Bft) W-SW 239 0 min 0,000 mm 1,4 UV-I 190 W/m 16,1 C 16,1 C 17,7 km/h (3 Bft) 100,00 %
09.08.2016 15:06 17,1 C 94 % 1017,7 hPa 0,0 l/m 7,2 km/h (2 Bft) W 259 0 min 0,000 mm 1,4 UV-I 192 W/m 16,1 C 16,7 C 11,3 km/h (2 Bft) 100,00 %
09.08.2016 15:08 17,1 C 94 % 1017,6 hPa 0,0 l/m 6,8 km/h (2 Bft) W-SW 254 0 min 0,000 mm 1,4 UV-I 189 W/m 16,1 C 16,9 C 11,3 km/h (2 Bft) 100,00 %
09.08.2016 15:10 17,1 C 94 % 1017,7 hPa 0,0 l/m 7,6 km/h (2 Bft) W-SW 249 0 min 0,000 mm 1,6 UV-I 224 W/m 16,1 C 16,5 C 11,3 km/h (2 Bft) 100,00 %
09.08.2016 15:12 17,1 C 94 % 1017,6 hPa 0,0 l/m 7,4 km/h (2 Bft) W-SW 253 0 min 0,000 mm 1,9 UV-I 253 W/m 16,1 C 16,6 C 12,9 km/h (3 Bft) 100,00 %
09.08.2016 15:14 17,2 C 94 % 1017,6 hPa 0,0 l/m 4,7 km/h (1 Bft) W 262 0 min 0,000 mm 2,0 UV-I 260 W/m 16,2 C 17,2 C 9,7 km/h (2 Bft) 97,87 %
09.08.2016 15:16 17,3 C 94 % 1017,6 hPa 0,0 l/m 4,5 km/h (1 Bft) W 265 0 min 0,000 mm 1,9 UV-I 256 W/m 16,3 C 17,3 C 6,4 km/h (2 Bft) 96,00 %
09.08.2016 15:18 17,3 C 94 % 1017,6 hPa 0,0 l/m 7,1 km/h (2 Bft) W-SW 257 0 min 0,000 mm 1,8 UV-I 245 W/m 16,3 C 17,0 C 11,3 km/h (2 Bft) 97,73 %
09.08.2016 15:20 17,3 C 94 % 1017,5 hPa 0,0 l/m 5,2 km/h (1 Bft) SW 221 0 min 0,000 mm 1,7 UV-I 233 W/m 16,3 C 17,3 C 9,7 km/h (2 Bft) 97,56 %
09.08.2016 15:22 17,4 C 93 % 1017,5 hPa 0,0 l/m 7,4 km/h (2 Bft) W-SW 250 0 min 0,000 mm 1,7 UV-I 227 W/m 16,3 C 16,9 C 14,5 km/h (3 Bft) 94,00 %
09.08.2016 15:24 17,4 C 93 % 1017,5 hPa 0,0 l/m 9,0 km/h (2 Bft) S 188 0 min 0,000 mm 1,6 UV-I 230 W/m 16,3 C 16,2 C 14,5 km/h (3 Bft) 98,11 %
09.08.2016 15:26 17,4 C 92 % 1017,4 hPa 0,0 l/m 10,8 km/h (2 Bft) W-SW 244 0 min 0,000 mm 1,7 UV-I 232 W/m 16,1 C 15,5 C 14,5 km/h (3 Bft) 97,87 %
09.08.2016 15:28 17,4 C 92 % 1017,4 hPa 0,0 l/m 7,1 km/h (2 Bft) SW 234 0 min 0,000 mm 1,7 UV-I 240 W/m 16,1 C 17,1 C 12,9 km/h (3 Bft) 97,56 %
09.08.2016 15:30 17,4 C 93 % 1017,4 hPa 0,0 l/m 5,8 km/h (2 Bft) W-SW 240 0 min 0,000 mm 1,7 UV-I 243 W/m 16,3 C 17,4 C 9,7 km/h (2 Bft) 97,73 %
09.08.2016 15:32 17,4 C 93 % 1017,3 hPa 0,0 l/m 6,9 km/h (2 Bft) S-SW 202 0 min 0,000 mm 1,7 UV-I 241 W/m 16,3 C 17,2 C 11,3 km/h (2 Bft) 98,00 %
09.08.2016 15:34 17,4 C 92 % 1017,3 hPa 0,0 l/m 7,4 km/h (2 Bft) W 278 0 min 0,000 mm 1,7 UV-I 244 W/m 16,1 C 16,9 C 11,3 km/h (2 Bft) 97,44 %
09.08.2016 15:36 17,5 C 92 % 1017,2 hPa 0,0 l/m 8,0 km/h (2 Bft) W-SW 244 0 min 0,000 mm 1,8 UV-I 261 W/m 16,2 C 16,7 C 12,9 km/h (3 Bft) 98,25 %
09.08.2016 15:38 17,6 C 92 % 1017,2 hPa 0,0 l/m 7,0 km/h (2 Bft) SW 229 0 min 0,000 mm 1,9 UV-I 281 W/m 16,3 C 17,3 C 11,3 km/h (2 Bft) 96,00 %
09.08.2016 15:40 17,6 C 91 % 1017,1 hPa 0,0 l/m 6,6 km/h (2 Bft) W-SW 241 0 min 0,000 mm 1,9 UV-I 295 W/m 16,1 C 17,5 C 12,9 km/h (3 Bft) 97,87 %
09.08.2016 15:42 17,6 C 92 % 1017,1 hPa 0,0 l/m 8,2 km/h (2 Bft) SW 219 0 min 0,000 mm 1,9 UV-I 279 W/m 16,3 C 16,7 C 12,9 km/h (3 Bft) 97,78 %
09.08.2016 15:44 17,7 C 92 % 1017,1 hPa 0,0 l/m 5,6 km/h (1 Bft) SW 222 0 min 0,000 mm 1,8 UV-I 263 W/m 16,4 C 17,7 C 12,9 km/h (3 Bft) 97,37 %
09.08.2016 15:46 17,7 C 90 % 1017,1 hPa 0,0 l/m 7,6 km/h (2 Bft) SW 229 0 min 0,000 mm 1,6 UV-I 224 W/m 16,0 C 17,1 C 12,9 km/h (3 Bft) 100,00 %
09.08.2016 15:48 17,7 C 90 % 1017,1 hPa 0,0 l/m 5,9 km/h (2 Bft) W 260 0 min 0,000 mm 1,4 UV-I 198 W/m 16,0 C 17,7 C 9,7 km/h (2 Bft) 100,00 %
09.08.2016 15:50 17,7 C 90 % 1017,0 hPa 0,0 l/m 6,8 km/h (2 Bft) W-SW 242 0 min 0,000 mm 1,3 UV-I 179 W/m 16,0 C 17,5 C 11,3 km/h (2 Bft) 100,00 %
09.08.2016 15:52 17,7 C 90 % 1017,0 hPa 0,0 l/m 9,5 km/h (2 Bft) W-SW 254 0 min 0,000 mm 1,2 UV-I 168 W/m 16,0 C 16,3 C 16,1 km/h (3 Bft) 95,12 %
09.08.2016 15:54 17,6 C 90 % 1017,1 hPa 0,0 l/m 9,0 km/h (2 Bft) W 270 0 min 0,000 mm 1,1 UV-I 162 W/m 15,9 C 16,4 C 14,5 km/h (3 Bft) 97,87 %
09.08.2016 15:56 17,6 C 90 % 1017,0 hPa 0,0 l/m 8,4 km/h (2 Bft) W-SW 255 0 min 0,000 mm 1,1 UV-I 162 W/m 15,9 C 16,7 C 12,9 km/h (3 Bft) 100,00 %
09.08.2016 15:58 17,6 C 91 % 1017,0 hPa 0,0 l/m 8,4 km/h (2 Bft) W-SW 246 0 min 0,000 mm 1,0 UV-I 159 W/m 16,1 C 16,7 C 12,9 km/h (3 Bft) 100,00 %
09.08.2016 16:00 17,5 C 90 % 1017,0 hPa 0,0 l/m 5,6 km/h (1 Bft) SW 236 0 min 0,127 mm 1,0 UV-I 152 W/m 15,8 C 17,5 C 9,7 km/h (2 Bft) 100,00 %
09.08.2016 16:02 17,4 C 91 % 1017,0 hPa 0,0 l/m 6,7 km/h (2 Bft) W-SW 241 0 min 0,000 mm 0,9 UV-I 144 W/m 15,9 C 17,3 C 12,9 km/h (3 Bft) 100,00 %
09.08.2016 16:04 17,4 C 91 % 1017,0 hPa 0,0 l/m 4,6 km/h (1 Bft) W-SW 240 0 min 0,000 mm 0,9 UV-I 138 W/m 15,9 C 17,4 C 8,0 km/h (2 Bft) 100,00 %
09.08.2016 16:06 17,4 C 91 % 1017,0 hPa 0,0 l/m 7,5 km/h (2 Bft) SW 227 0 min 0,000 mm 0,9 UV-I 138 W/m 15,9 C 16,9 C 14,5 km/h (3 Bft) 100,00 %
09.08.2016 16:08 17,4 C 91 % 1016,9 hPa 0,0 l/m 5,7 km/h (1 Bft) SW 227 0 min 0,000 mm 0,9 UV-I 141 W/m 15,9 C 17,4 C 11,3 km/h (2 Bft) 100,00 %
09.08.2016 16:10 17,4 C 91 % 1016,9 hPa 0,0 l/m 6,0 km/h (2 Bft) SW 235 0 min 0,000 mm 0,9 UV-I 146 W/m 15,9 C 17,4 C 11,3 km/h (2 Bft) 100,00 %
09.08.2016 16:12 17,5 C 92 % 1016,9 hPa 0,0 l/m 4,7 km/h (1 Bft) SW 220 0 min 0,000 mm 0,9 UV-I 150 W/m 16,2 C 17,5 C 9,7 km/h (2 Bft) 97,87 %
09.08.2016 16:14 17,5 C 92 % 1016,9 hPa 0,0 l/m 3,5 km/h (1 Bft) W-SW 252 0 min 0,000 mm 1,0 UV-I 158 W/m 16,2 C 17,5 C 4,8 km/h (1 Bft) 100,00 %
09.08.2016 16:16 17,5 C 92 % 1016,9 hPa 0,0 l/m 4,3 km/h (1 Bft) W 264 0 min 0,000 mm 1,0 UV-I 168 W/m 16,2 C 17,5 C 9,7 km/h (2 Bft) 100,00 %
09.08.2016 16:18 17,6 C 92 % 1016,9 hPa 0,0 l/m 6,5 km/h (2 Bft) W-SW 240 0 min 0,000 mm 1,1 UV-I 176 W/m 16,3 C 17,6 C 11,3 km/h (2 Bft) 98,11 %
09.08.2016 16:20 17,6 C 92 % 1016,9 hPa 0,0 l/m 7,5 km/h (2 Bft) SW 232 0 min 0,000 mm 1,1 UV-I 178 W/m 16,3 C 17,1 C 12,9 km/h (3 Bft) 100,00 %
09.08.2016 16:22 17,6 C 92 % 1016,9 hPa 0,0 l/m 6,7 km/h (2 Bft) SW 229 0 min 0,000 mm 1,1 UV-I 176 W/m 16,3 C 17,5 C 11,3 km/h (2 Bft) 100,00 %
09.08.2016 16:24 17,6 C 92 % 1016,8 hPa 0,0 l/m 6,8 km/h (2 Bft) W-SW 246 0 min 0,000 mm 1,0 UV-I 169 W/m 16,3 C 17,4 C 12,9 km/h (3 Bft) 94,74 %
09.08.2016 16:26 17,6 C 91 % 1016,8 hPa 0,0 l/m 6,4 km/h (2 Bft) SW 236 0 min 0,000 mm 1,0 UV-I 159 W/m 16,1 C 17,6 C 9,7 km/h (2 Bft) 100,00 %
09.08.2016 16:28 17,6 C 90 % 1016,8 hPa 0,0 l/m 5,0 km/h (1 Bft) W-SW 243 0 min 0,000 mm 0,9 UV-I 150 W/m 15,9 C 17,6 C 8,0 km/h (2 Bft) 100,00 %
09.08.2016 16:30 17,6 C 91 % 1016,8 hPa 0,0 l/m 4,9 km/h (1 Bft) SW 221 0 min 0,000 mm 0,9 UV-I 144 W/m 16,1 C 17,6 C 6,4 km/h (2 Bft) 97,56 %
09.08.2016 16:32 17,6 C 91 % 1016,7 hPa 0,0 l/m 4,0 km/h (1 Bft) SW 230 0 min 0,000 mm 0,8 UV-I 141 W/m 16,1 C 17,6 C 6,4 km/h (2 Bft) 100,00 %
09.08.2016 16:34 17,6 C 91 % 1016,7 hPa 0,0 l/m 5,6 km/h (1 Bft) SW 232 0 min 0,000 mm 0,8 UV-I 139 W/m 16,1 C 17,6 C 9,7 km/h (2 Bft) 97,14 %
09.08.2016 16:36 17,6 C 91 % 1016,8 hPa 0,0 l/m 6,2 km/h (2 Bft) SW 221 0 min 0,000 mm 0,8 UV-I 143 W/m 16,1 C 17,6 C 11,3 km/h (2 Bft) 100,00 %
09.08.2016 16:38 17,6 C 91 % 1016,8 hPa 0,0 l/m 6,5 km/h (2 Bft) W-SW 244 0 min 0,000 mm 0,8 UV-I 151 W/m 16,1 C 17,6 C 9,7 km/h (2 Bft) 100,00 %
09.08.2016 16:40 17,7 C 92 % 1016,8 hPa 0,0 l/m 5,6 km/h (1 Bft) SW 229 0 min 0,000 mm 0,9 UV-I 163 W/m 16,4 C 17,7 C 9,7 km/h (2 Bft) 97,87 %
09.08.2016 16:42 17,7 C 91 % 1016,8 hPa 0,0 l/m 3,5 km/h (1 Bft) W 266 0 min 0,000 mm 1,0 UV-I 177 W/m 16,2 C 17,7 C 6,4 km/h (2 Bft) 97,56 %
09.08.2016 16:44 17,8 C 92 % 1016,8 hPa 0,0 l/m 4,1 km/h (1 Bft) W-SW 257 0 min 0,000 mm 1,0 UV-I 187 W/m 16,5 C 17,8 C 8,0 km/h (2 Bft) 100,00 %
09.08.2016 16:46 17,8 C 91 % 1016,8 hPa 0,0 l/m 5,7 km/h (1 Bft) W 263 0 min 0,000 mm 1,0 UV-I 191 W/m 16,3 C 17,8 C 11,3 km/h (2 Bft) 100,00 %
09.08.2016 16:48 17,8 C 91 % 1016,8 hPa 0,0 l/m 5,4 km/h (1 Bft) SW 235 0 min 0,000 mm 1,0 UV-I 192 W/m 16,3 C 17,8 C 9,7 km/h (2 Bft) 100,00 %
09.08.2016 16:50 17,9 C 91 % 1016,8 hPa 0,0 l/m 3,6 km/h (1 Bft) W 261 0 min 0,000 mm 1,0 UV-I 192 W/m 16,4 C 17,9 C 4,8 km/h (1 Bft) 100,00 %
09.08.2016 16:52 17,9 C 92 % 1016,9 hPa 0,0 l/m 2,5 km/h (1 Bft) W-SW 255 0 min 0,000 mm 1,0 UV-I 188 W/m 16,6 C 17,9 C 4,8 km/h (1 Bft) 100,00 %
09.08.2016 16:54 17,9 C 91 % 1016,9 hPa 0,0 l/m 3,2 km/h (1 Bft) S-SW 201 0 min 0,000 mm 1,0 UV-I 191 W/m 16,4 C 17,9 C 6,4 km/h (2 Bft) 100,00 %
09.08.2016 16:56 17,9 C 91 % 1016,9 hPa 0,0 l/m 6,0 km/h (2 Bft) SW 231 0 min 0,000 mm 1,0 UV-I 191 W/m 16,4 C 17,9 C 9,7 km/h (2 Bft) 100,00 %
09.08.2016 16:58 17,9 C 90 % 1016,9 hPa 0,0 l/m 5,9 km/h (2 Bft) S-SW 200 0 min 0,000 mm 0,9 UV-I 182 W/m 16,2 C 17,9 C 9,7 km/h (2 Bft) 100,00 %
09.08.2016 17:00 17,9 C 91 % 1016,8 hPa 0,0 l/m 5,5 km/h (1 Bft) SW 232 0 min 0,000 mm 0,9 UV-I 174 W/m 16,4 C 17,9 C 8,0 km/h (2 Bft) 100,00 %
09.08.2016 17:02 18,0 C 92 % 1016,9 hPa 0,0 l/m 5,3 km/h (1 Bft) SW 225 0 min 0,101 mm 0,9 UV-I 163 W/m 16,7 C 18,0 C 9,7 km/h (2 Bft) 100,00 %
09.08.2016 17:04 18,0 C 91 % 1016,8 hPa 0,0 l/m 6,2 km/h (2 Bft) SW 232 0 min 0,000 mm 0,9 UV-I 164 W/m 16,5 C 18,0 C 9,7 km/h (2 Bft) 98,00 %
09.08.2016 17:06 17,9 C 90 % 1016,8 hPa 0,0 l/m 6,1 km/h (2 Bft) SW 221 0 min 0,000 mm 0,9 UV-I 166 W/m 16,2 C 17,9 C 11,3 km/h (2 Bft) 100,00 %
09.08.2016 17:08 17,9 C 90 % 1016,8 hPa 0,0 l/m 7,2 km/h (2 Bft) S-SW 208 0 min 0,000 mm 0,8 UV-I 161 W/m 16,2 C 17,5 C 12,9 km/h (3 Bft) 100,00 %
09.08.2016 17:10 17,9 C 89 % 1016,8 hPa 0,0 l/m 8,9 km/h (2 Bft) S-SW 205 0 min 0,000 mm 0,8 UV-I 159 W/m 16,1 C 16,8 C 11,3 km/h (2 Bft) 100,00 %
09.08.2016 17:12 17,9 C 91 % 1016,8 hPa 0,0 l/m 5,3 km/h (1 Bft) SW 217 0 min 0,000 mm 0,8 UV-I 153 W/m 16,4 C 17,9 C 8,0 km/h (2 Bft) 97,87 %
09.08.2016 17:14 17,9 C 91 % 1016,8 hPa 0,0 l/m 4,3 km/h (1 Bft) S-SW 209 0 min 0,000 mm 0,8 UV-I 150 W/m 16,4 C 17,9 C 8,0 km/h (2 Bft) 97,14 %
09.08.2016 17:16 17,9 C 89 % 1016,8 hPa 0,0 l/m 5,2 km/h (1 Bft) SW 234 0 min 0,000 mm 0,7 UV-I 146 W/m 16,1 C 17,9 C 8,0 km/h (2 Bft) 96,43 %
09.08.2016 17:18 17,9 C 89 % 1016,8 hPa 0,0 l/m 3,7 km/h (1 Bft) S 180 0 min 0,000 mm 0,7 UV-I 140 W/m 16,1 C 17,9 C 8,0 km/h (2 Bft) 97,87 %
09.08.2016 17:20 17,9 C 88 % 1016,8 hPa 0,0 l/m 4,9 km/h (1 Bft) S 188 0 min 0,000 mm 0,6 UV-I 134 W/m 15,9 C 17,9 C 8,0 km/h (2 Bft) 96,00 %
09.08.2016 17:22 17,9 C 89 % 1016,7 hPa 0,0 l/m 4,0 km/h (1 Bft) S-SW 213 0 min 0,000 mm 0,6 UV-I 127 W/m 16,1 C 17,9 C 6,4 km/h (2 Bft) 95,74 %
09.08.2016 17:24 17,9 C 89 % 1016,8 hPa 0,0 l/m 4,2 km/h (1 Bft) SW 221 0 min 0,000 mm 0,6 UV-I 122 W/m 16,1 C 17,9 C 6,4 km/h (2 Bft) 97,37 %
09.08.2016 17:26 17,9 C 89 % 1016,7 hPa 0,0 l/m 6,5 km/h (2 Bft) S-SW 198 0 min 0,000 mm 0,6 UV-I 121 W/m 16,1 C 17,9 C 8,0 km/h (2 Bft) 97,87 %
09.08.2016 17:28 17,9 C 89 % 1016,7 hPa 0,0 l/m 4,5 km/h (1 Bft) S 181 0 min 0,000 mm 0,6 UV-I 126 W/m 16,1 C 17,9 C 6,4 km/h (2 Bft) 96,23 %
09.08.2016 17:30 17,9 C 90 % 1016,7 hPa 0,0 l/m 3,2 km/h (1 Bft) S-SW 201 0 min 0,000 mm 0,6 UV-I 134 W/m 16,2 C 17,9 C 4,8 km/h (1 Bft) 97,56 %
09.08.2016 17:32 17,9 C 89 % 1016,7 hPa 0,0 l/m 4,2 km/h (1 Bft) S-SW 195 0 min 0,000 mm 0,6 UV-I 142 W/m 16,1 C 17,9 C 6,4 km/h (2 Bft) 95,24 %
09.08.2016 17:34 18,0 C 89 % 1016,6 hPa 0,0 l/m 4,3 km/h (1 Bft) S-SW 198 0 min 0,000 mm 0,6 UV-I 144 W/m 16,2 C 18,0 C 8,0 km/h (2 Bft) 98,11 %
09.08.2016 17:36 17,9 C 88 % 1016,6 hPa 0,0 l/m 6,0 km/h (2 Bft) S-SO 168 0 min 0,000 mm 0,6 UV-I 143 W/m 15,9 C 17,9 C 8,0 km/h (2 Bft) 97,87 %
09.08.2016 17:38 17,9 C 88 % 1016,6 hPa 0,0 l/m 4,8 km/h (1 Bft) S-SO 164 0 min 0,000 mm 0,6 UV-I 141 W/m 15,9 C 17,9 C 12,9 km/h (3 Bft) 98,00 %
09.08.2016 17:40 17,9 C 88 % 1016,6 hPa 0,0 l/m 5,3 km/h (1 Bft) SW 217 0 min 0,000 mm 0,6 UV-I 138 W/m 15,9 C 17,9 C 8,0 km/h (2 Bft) 95,74 %
09.08.2016 17:42 18,0 C 87 % 1016,6 hPa 0,0 l/m 5,8 km/h (2 Bft) S 178 0 min 0,000 mm 0,5 UV-I 135 W/m 15,8 C 18,0 C 8,0 km/h (2 Bft) 97,37 %
09.08.2016 17:44 18,0 C 88 % 1016,6 hPa 0,0 l/m 3,6 km/h (1 Bft) S-SW 213 0 min 0,000 mm 0,5 UV-I 135 W/m 16,0 C 18,0 C 6,4 km/h (2 Bft) 98,21 %
09.08.2016 17:46 18,0 C 89 % 1016,6 hPa 0,0 l/m 1,6 km/h (1 Bft) S 173 0 min 0,000 mm 0,5 UV-I 137 W/m 16,2 C 18,0 C 4,8 km/h (1 Bft) 100,00 %
09.08.2016 17:48 18,1 C 89 % 1016,5 hPa 0,0 l/m 3,7 km/h (1 Bft) S-SW 199 0 min 0,000 mm 0,5 UV-I 142 W/m 16,3 C 18,1 C 6,4 km/h (2 Bft) 100,00 %
09.08.2016 17:50 18,1 C 89 % 1016,6 hPa 0,0 l/m 4,7 km/h (1 Bft) S 185 0 min 0,000 mm 0,5 UV-I 142 W/m 16,3 C 18,1 C 8,0 km/h (2 Bft) 96,77 %
09.08.2016 17:52 18,1 C 88 % 1016,6 hPa 0,0 l/m 2,9 km/h (1 Bft) S-SO 164 0 min 0,000 mm 0,5 UV-I 138 W/m 16,1 C 18,1 C 6,4 km/h (2 Bft) 100,00 %
09.08.2016 17:54 18,2 C 88 % 1016,5 hPa 0,0 l/m 5,7 km/h (1 Bft) S 178 0 min 0,000 mm 0,3 UV-I 127 W/m 16,2 C 18,2 C 9,7 km/h (2 Bft) 100,00 %
09.08.2016 17:56 18,2 C 88 % 1016,5 hPa 0,0 l/m 4,3 km/h (1 Bft) S-SO 166 0 min 0,000 mm 0,0 UV-I 121 W/m 16,2 C 18,2 C 8,0 km/h (2 Bft) 98,00 %
09.08.2016 17:58 18,1 C 87 % 1016,5 hPa 0,0 l/m 3,3 km/h (1 Bft) S 174 0 min 0,000 mm 0,0 UV-I 121 W/m 15,9 C 18,1 C 8,0 km/h (2 Bft) 100,00 %
09.08.2016 18:00 18,1 C 88 % 1016,5 hPa 0,0 l/m 4,3 km/h (1 Bft) W-SW 240 0 min 0,000 mm 0,0 UV-I 118 W/m 16,1 C 18,1 C 8,0 km/h (2 Bft) 100,00 %
09.08.2016 18:02 18,1 C 87 % 1016,5 hPa 0,0 l/m 2,6 km/h (1 Bft) S 172 0 min 0,077 mm 0,0 UV-I 117 W/m 15,9 C 18,1 C 6,4 km/h (2 Bft) 100,00 %
09.08.2016 18:04 18,1 C 89 % 1016,5 hPa 0,0 l/m 4,4 km/h (1 Bft) SW 229 0 min 0,000 mm 0,0 UV-I 115 W/m 16,3 C 18,1 C 6,4 km/h (2 Bft) 96,43 %
09.08.2016 18:06 18,1 C 87 % 1016,5 hPa 0,0 l/m 2,7 km/h (1 Bft) S 190 0 min 0,000 mm 0,0 UV-I 107 W/m 15,9 C 18,1 C 6,4 km/h (2 Bft) 97,87 %
09.08.2016 18:08 18,1 C 88 % 1016,5 hPa 0,0 l/m 1,5 km/h (1 Bft) S 190 0 min 0,000 mm 0,0 UV-I 99 W/m 16,1 C 18,1 C 3,2 km/h (1 Bft) 97,37 %
09.08.2016 18:10 18,1 C 88 % 1016,5 hPa 0,0 l/m 2,7 km/h (1 Bft) S 181 0 min 0,000 mm 0,0 UV-I 90 W/m 16,1 C 18,1 C 6,4 km/h (2 Bft) 98,00 %
09.08.2016 18:12 18,1 C 88 % 1016,5 hPa 0,0 l/m 1,9 km/h (1 Bft) S 181 0 min 0,000 mm 0,0 UV-I 88 W/m 16,1 C 18,1 C 3,2 km/h (1 Bft) 100,00 %
09.08.2016 18:14 18,1 C 88 % 1016,5 hPa 0,0 l/m 3,2 km/h (1 Bft) S-SO 154 0 min 0,000 mm 0,0 UV-I 91 W/m 16,1 C 18,1 C 6,4 km/h (2 Bft) 100,00 %
09.08.2016 18:16 18,1 C 88 % 1016,5 hPa 0,0 l/m 3,5 km/h (1 Bft) S 186 0 min 0,000 mm 0,0 UV-I 86 W/m 16,1 C 18,1 C 8,0 km/h (2 Bft) 100,00 %
09.08.2016 18:18 18,1 C 88 % 1016,6 hPa 0,0 l/m 4,9 km/h (1 Bft) S 175 0 min 0,000 mm 0,0 UV-I 65 W/m 16,1 C 18,1 C 6,4 km/h (2 Bft) 96,43 %
09.08.2016 18:20 18,1 C 88 % 1016,6 hPa 0,0 l/m 3,0 km/h (1 Bft) S 188 0 min 0,000 mm 0,0 UV-I 49 W/m 16,1 C 18,1 C 6,4 km/h (2 Bft) 100,00 %
09.08.2016 18:22 18,1 C 87 % 1016,6 hPa 0,0 l/m 1,7 km/h (1 Bft) S 172 0 min 0,000 mm 0,0 UV-I 40 W/m 15,9 C 18,1 C 3,2 km/h (1 Bft) 100,00 %
09.08.2016 18:24 18,0 C 87 % 1016,6 hPa 0,0 l/m 2,0 km/h (1 Bft) S 169 0 min 0,000 mm 0,0 UV-I 36 W/m 15,8 C 18,0 C 8,0 km/h (2 Bft) 100,00 %
09.08.2016 18:26 18,0 C 88 % 1016,6 hPa 0,0 l/m 3,4 km/h (1 Bft) SW 223 0 min 0,000 mm 0,0 UV-I 34 W/m 16,0 C 18,0 C 8,0 km/h (2 Bft) 100,00 %
09.08.2016 18:28 18,0 C 87 % 1016,6 hPa 0,0 l/m 4,6 km/h (1 Bft) SW 228 0 min 0,000 mm 0,0 UV-I 33 W/m 15,8 C 18,0 C 6,4 km/h (2 Bft) 100,00 %
09.08.2016 18:30 17,9 C 88 % 1016,6 hPa 0,0 l/m 3,3 km/h (1 Bft) SW 228 0 min 0,000 mm 0,0 UV-I 34 W/m 15,9 C 17,9 C 4,8 km/h (1 Bft) 97,87 %
09.08.2016 18:32 17,9 C 88 % 1016,6 hPa 0,0 l/m 2,1 km/h (1 Bft) SW 228 0 min 0,000 mm 0,0 UV-I 39 W/m 15,9 C 17,9 C 4,8 km/h (1 Bft) 100,00 %
09.08.2016 18:34 17,9 C 88 % 1016,6 hPa 0,0 l/m 2,7 km/h (1 Bft) SW 228 0 min 0,000 mm 0,0 UV-I 39 W/m 15,9 C 17,9 C 4,8 km/h (1 Bft) 100,00 %
09.08.2016 18:36 17,9 C 88 % 1016,6 hPa 0,0 l/m 3,1 km/h (1 Bft) S 175 0 min 0,000 mm 0,0 UV-I 39 W/m 15,9 C 17,9 C 4,8 km/h (1 Bft) 100,00 %
09.08.2016 18:38 17,9 C 88 % 1016,6 hPa 0,0 l/m 4,3 km/h (1 Bft) S-SW 195 0 min 0,000 mm 0,0 UV-I 38 W/m 15,9 C 17,9 C 9,7 km/h (2 Bft) 100,00 %
09.08.2016 18:40 17,9 C 87 % 1016,5 hPa 0,0 l/m 4,5 km/h (1 Bft) S 183 0 min 0,000 mm 0,0 UV-I 39 W/m 15,7 C 17,9 C 8,0 km/h (2 Bft) 100,00 %
09.08.2016 18:42 17,8 C 87 % 1016,6 hPa 0,0 l/m 3,8 km/h (1 Bft) S 176 0 min 0,000 mm 0,0 UV-I 41 W/m 15,6 C 17,8 C 6,4 km/h (2 Bft) 100,00 %
09.08.2016 18:44 17,8 C 87 % 1016,5 hPa 0,0 l/m 2,8 km/h (1 Bft) S 177 0 min 0,000 mm 0,0 UV-I 47 W/m 15,6 C 17,8 C 4,8 km/h (1 Bft) 98,11 %
09.08.2016 18:46 17,8 C 87 % 1016,5 hPa 0,0 l/m 3,7 km/h (1 Bft) S 169 0 min 0,000 mm 0,0 UV-I 50 W/m 15,6 C 17,8 C 6,4 km/h (2 Bft) 100,00 %
09.08.2016 18:48 17,8 C 88 % 1016,5 hPa 0,0 l/m 3,4 km/h (1 Bft) S 176 0 min 0,000 mm 0,0 UV-I 54 W/m 15,8 C 17,8 C 6,4 km/h (2 Bft) 98,28 %
09.08.2016 18:50 17,8 C 88 % 1016,5 hPa 0,0 l/m 2,4 km/h (1 Bft) S 188 0 min 0,000 mm 0,0 UV-I 59 W/m 15,8 C 17,8 C 4,8 km/h (1 Bft) 100,00 %
09.08.2016 18:52 17,8 C 88 % 1016,4 hPa 0,0 l/m 1,9 km/h (1 Bft) S 180 0 min 0,000 mm 0,0 UV-I 64 W/m 15,8 C 17,8 C 3,2 km/h (1 Bft) 100,00 %
09.08.2016 18:54 17,8 C 88 % 1016,4 hPa 0,0 l/m 4,2 km/h (1 Bft) S 182 0 min 0,000 mm 0,0 UV-I 70 W/m 15,8 C 17,8 C 8,0 km/h (2 Bft) 100,00 %
09.08.2016 18:56 17,8 C 88 % 1016,4 hPa 0,0 l/m 1,6 km/h (1 Bft) S 181 0 min 0,000 mm 0,0 UV-I 76 W/m 15,8 C 17,8 C 3,2 km/h (1 Bft) 100,00 %
09.08.2016 18:58 17,8 C 88 % 1016,3 hPa 0,0 l/m 1,4 km/h (1 Bft) S 169 0 min 0,000 mm 0,0 UV-I 80 W/m 15,8 C 17,8 C 3,2 km/h (1 Bft) 98,11 %
09.08.2016 19:00 17,9 C 88 % 1016,3 hPa 0,0 l/m 1,2 km/h (1 Bft) S 169 0 min 0,050 mm 0,0 UV-I 82 W/m 15,9 C 17,9 C 3,2 km/h (1 Bft) 100,00 %
09.08.2016 19:02 17,8 C 88 % 1016,3 hPa 0,0 l/m 1,1 km/h (1 Bft) S 169 0 min 0,000 mm 0,0 UV-I 83 W/m 15,8 C 17,8 C 3,2 km/h (1 Bft) 100,00 %
09.08.2016 19:04 17,9 C 87 % 1016,3 hPa 0,0 l/m 1,8 km/h (1 Bft) S 169 0 min 0,000 mm 0,0 UV-I 81 W/m 15,7 C 17,9 C 3,2 km/h (1 Bft) 97,87 %
09.08.2016 19:06 17,9 C 88 % 1016,3 hPa 0,0 l/m 2,4 km/h (1 Bft) S-SO 167 0 min 0,000 mm 0,0 UV-I 73 W/m 15,9 C 17,9 C 8,0 km/h (2 Bft) 100,00 %
09.08.2016 19:08 17,9 C 87 % 1016,4 hPa 0,0 l/m 2,3 km/h (1 Bft) S-SO 167 0 min 0,000 mm 0,0 UV-I 67 W/m 15,7 C 17,9 C 4,8 km/h (1 Bft) 100,00 %
09.08.2016 19:10 17,9 C 88 % 1016,3 hPa 0,0 l/m 2,6 km/h (1 Bft) S-SO 167 0 min 0,000 mm 0,0 UV-I 64 W/m 15,9 C 17,9 C 6,4 km/h (2 Bft) 96,00 %
09.08.2016 19:12 17,9 C 88 % 1016,4 hPa 0,0 l/m 4,1 km/h (1 Bft) S-SO 167 0 min 0,000 mm 0,0 UV-I 67 W/m 15,9 C 17,9 C 6,4 km/h (2 Bft) 97,56 %
09.08.2016 19:14 17,9 C 88 % 1016,4 hPa 0,0 l/m 5,5 km/h (1 Bft) S 181 0 min 0,000 mm 0,0 UV-I 69 W/m 15,9 C 17,9 C 9,7 km/h (2 Bft) 95,74 %
09.08.2016 19:16 17,9 C 88 % 1016,5 hPa 0,0 l/m 4,2 km/h (1 Bft) S 177 0 min 0,000 mm 0,0 UV-I 70 W/m 15,9 C 17,9 C 6,4 km/h (2 Bft) 98,00 %
09.08.2016 19:18 17,9 C 88 % 1016,5 hPa 0,0 l/m 3,4 km/h (1 Bft) S 175 0 min 0,000 mm 0,0 UV-I 65 W/m 15,9 C 17,9 C 4,8 km/h (1 Bft) 98,00 %
09.08.2016 19:20 17,8 C 88 % 1016,5 hPa 0,0 l/m 2,8 km/h (1 Bft) S 175 0 min 0,000 mm 0,0 UV-I 53 W/m 15,8 C 17,8 C 4,8 km/h (1 Bft) 98,00 %
09.08.2016 19:22 17,9 C 89 % 1016,5 hPa 0,0 l/m 2,1 km/h (1 Bft) S 175 0 min 0,000 mm 0,0 UV-I 44 W/m 16,1 C 17,9 C 3,2 km/h (1 Bft) 95,74 %
09.08.2016 19:24 17,8 C 89 % 1016,6 hPa 0,0 l/m 2,7 km/h (1 Bft) S 175 0 min 0,000 mm 0,0 UV-I 35 W/m 16,0 C 17,8 C 4,8 km/h (1 Bft) 100,00 %
09.08.2016 19:26 17,8 C 90 % 1016,6 hPa 0,0 l/m 3,3 km/h (1 Bft) S 176 0 min 0,000 mm 0,0 UV-I 27 W/m 16,1 C 17,8 C 4,8 km/h (1 Bft) 95,74 %
09.08.2016 19:28 17,8 C 90 % 1016,6 hPa 0,0 l/m 3,3 km/h (1 Bft) S 177 0 min 0,000 mm 0,0 UV-I 20 W/m 16,1 C 17,8 C 4,8 km/h (1 Bft) 98,11 %
09.08.2016 19:30 17,8 C 90 % 1016,6 hPa 0,0 l/m 2,6 km/h (1 Bft) S 179 0 min 0,000 mm 0,0 UV-I 15 W/m 16,1 C 17,8 C 4,8 km/h (1 Bft) 98,00 %
09.08.2016 19:32 17,8 C 90 % 1016,6 hPa 0,0 l/m 2,8 km/h (1 Bft) S 179 0 min 0,000 mm 0,0 UV-I 14 W/m 16,1 C 17,8 C 4,8 km/h (1 Bft) 94,87 %
09.08.2016 19:34 17,8 C 90 % 1016,5 hPa 0,0 l/m 2,9 km/h (1 Bft) S 180 0 min 0,000 mm 0,0 UV-I 14 W/m 16,1 C 17,8 C 3,2 km/h (1 Bft) 98,00 %
09.08.2016 19:36 17,7 C 90 % 1016,5 hPa 0,0 l/m 2,1 km/h (1 Bft) S 180 0 min 0,000 mm 0,0 UV-I 12 W/m 16,0 C 17,7 C 3,2 km/h (1 Bft) 98,00 %
09.08.2016 19:38 17,7 C 89 % 1016,4 hPa 0,0 l/m 0,8 km/h (0 Bft) S 180 0 min 0,000 mm 0,0 UV-I 12 W/m 15,9 C 17,7 C 1,6 km/h (1 Bft) 94,74 %
09.08.2016 19:40 17,7 C 90 % 1016,4 hPa 0,0 l/m 0,9 km/h (0 Bft) S 180 0 min 0,000 mm 0,0 UV-I 11 W/m 16,0 C 17,7 C 3,2 km/h (1 Bft) 98,00 %
09.08.2016 19:42 17,7 C 89 % 1016,4 hPa 0,0 l/m 2,4 km/h (1 Bft) S 180 0 min 0,000 mm 0,0 UV-I 11 W/m 15,9 C 17,7 C 3,2 km/h (1 Bft) 96,23 %
09.08.2016 19:44 17,7 C 89 % 1016,5 hPa 0,0 l/m 2,7 km/h (1 Bft) S 180 0 min 0,000 mm 0,0 UV-I 11 W/m 15,9 C 17,7 C 4,8 km/h (1 Bft) 97,37 %
09.08.2016 19:46 17,7 C 89 % 1016,5 hPa 0,0 l/m 1,8 km/h (1 Bft) S 180 0 min 0,000 mm 0,0 UV-I 10 W/m 15,9 C 17,7 C 3,2 km/h (1 Bft) 98,00 %
09.08.2016 19:48 17,6 C 89 % 1016,5 hPa 0,0 l/m 1,4 km/h (1 Bft) S 180 0 min 0,000 mm 0,0 UV-I 9 W/m 15,8 C 17,6 C 3,2 km/h (1 Bft) 100,00 %
09.08.2016 19:50 17,6 C 90 % 1016,5 hPa 0,0 l/m 2,6 km/h (1 Bft) S 180 0 min 0,000 mm 0,0 UV-I 9 W/m 15,9 C 17,6 C 4,8 km/h (1 Bft) 100,00 %
09.08.2016 19:52 17,6 C 89 % 1016,5 hPa 0,0 l/m 2,8 km/h (1 Bft) S 180 0 min 0,000 mm 0,0 UV-I 7 W/m 15,8 C 17,6 C 3,2 km/h (1 Bft) 100,00 %
09.08.2016 19:54 17,6 C 90 % 1016,4 hPa 0,0 l/m 2,4 km/h (1 Bft) S 180 0 min 0,000 mm 0,0 UV-I 7 W/m 15,9 C 17,6 C 4,8 km/h (1 Bft) 100,00 %
09.08.2016 19:56 17,6 C 90 % 1016,5 hPa 0,0 l/m 2,5 km/h (1 Bft) S 180 0 min 0,000 mm 0,0 UV-I 6 W/m 15,9 C 17,6 C 4,8 km/h (1 Bft) 95,74 %
09.08.2016 19:58 17,6 C 90 % 1016,6 hPa 0,0 l/m 4,6 km/h (1 Bft) S-SO 167 0 min 0,000 mm 0,0 UV-I 5 W/m 15,9 C 17,6 C 8,0 km/h (2 Bft) 100,00 %
09.08.2016 20:00 17,6 C 90 % 1016,6 hPa 0,0 l/m 3,9 km/h (1 Bft) S 180 0 min 0,000 mm 0,0 UV-I 3 W/m 15,9 C 17,6 C 6,4 km/h (2 Bft) 100,00 %
09.08.2016 20:02 17,6 C 90 % 1016,6 hPa 0,0 l/m 3,4 km/h (1 Bft) S 189 0 min 0,026 mm 0,0 UV-I 0 W/m 15,9 C 17,6 C 6,4 km/h (2 Bft) 97,87 %
09.08.2016 20:04 17,6 C 90 % 1016,6 hPa 0,0 l/m 3,8 km/h (1 Bft) S-SW 205 0 min 0,000 mm 0,0 UV-I 0 W/m 15,9 C 17,6 C 6,4 km/h (2 Bft) 97,37 %
09.08.2016 20:06 17,6 C 90 % 1016,7 hPa 0,0 l/m 4,7 km/h (1 Bft) S-SW 197 0 min 0,000 mm 0,0 UV-I 0 W/m 15,9 C 17,6 C 8,0 km/h (2 Bft) 100,00 %
09.08.2016 20:08 17,6 C 90 % 1016,7 hPa 0,0 l/m 5,8 km/h (2 Bft) S-SW 201 0 min 0,000 mm 0,0 UV-I 0 W/m 15,9 C 17,6 C 8,0 km/h (2 Bft) 98,00 %
09.08.2016 20:10 17,5 C 90 % 1016,7 hPa 0,0 l/m 5,0 km/h (1 Bft) S-SW 205 0 min 0,000 mm 0,0 UV-I 0 W/m 15,8 C 17,5 C 8,0 km/h (2 Bft) 100,00 %
09.08.2016 20:12 17,5 C 90 % 1016,6 hPa 0,0 l/m 4,2 km/h (1 Bft) SW 235 0 min 0,000 mm 0,0 UV-I 0 W/m 15,8 C 17,5 C 6,4 km/h (2 Bft) 98,11 %
09.08.2016 20:14 17,5 C 90 % 1016,6 hPa 0,0 l/m 5,1 km/h (1 Bft) SW 236 0 min 0,000 mm 0,0 UV-I 0 W/m 15,8 C 17,5 C 8,0 km/h (2 Bft) 100,00 %
09.08.2016 20:16 17,5 C 90 % 1016,6 hPa 0,0 l/m 6,0 km/h (2 Bft) W-SW 243 0 min 0,000 mm 0,0 UV-I 0 W/m 15,8 C 17,5 C 8,0 km/h (2 Bft) 100,00 %
09.08.2016 20:18 17,4 C 90 % 1016,6 hPa 0,0 l/m 7,9 km/h (2 Bft) W-SW 248 0 min 0,000 mm 0,0 UV-I 0 W/m 15,7 C 16,7 C 11,3 km/h (2 Bft) 97,87 %
09.08.2016 20:20 17,4 C 90 % 1016,6 hPa 0,0 l/m 7,0 km/h (2 Bft) SW 221 0 min 0,000 mm 0,0 UV-I 0 W/m 15,7 C 17,1 C 9,7 km/h (2 Bft) 98,21 %
09.08.2016 20:22 17,4 C 91 % 1016,7 hPa 0,0 l/m 5,3 km/h (1 Bft) SW 221 0 min 0,000 mm 0,0 UV-I 0 W/m 15,9 C 17,4 C 6,4 km/h (2 Bft) 97,73 %
09.08.2016 20:24 17,4 C 91 % 1016,7 hPa 0,0 l/m 5,1 km/h (1 Bft) W 277 0 min 0,000 mm 0,0 UV-I 0 W/m 15,9 C 17,4 C 9,7 km/h (2 Bft) 100,00 %
09.08.2016 20:26 17,4 C 91 % 1016,7 hPa 0,0 l/m 4,6 km/h (1 Bft) W 269 0 min 0,000 mm 0,0 UV-I 0 W/m 15,9 C 17,4 C 9,7 km/h (2 Bft) 97,56 %
09.08.2016 20:28 17,4 C 91 % 1016,7 hPa 0,0 l/m 3,3 km/h (1 Bft) W-SW 254 0 min 0,000 mm 0,0 UV-I 0 W/m 15,9 C 17,4 C 6,4 km/h (2 Bft) 100,00 %
09.08.2016 20:30 17,3 C 91 % 1016,7 hPa 0,0 l/m 5,5 km/h (1 Bft) W 277 0 min 0,000 mm 0,0 UV-I 0 W/m 15,8 C 17,3 C 9,7 km/h (2 Bft) 100,00 %
09.08.2016 20:32 17,3 C 91 % 1016,7 hPa 0,0 l/m 9,1 km/h (2 Bft) W 274 0 min 0,000 mm 0,0 UV-I 0 W/m 15,8 C 16,0 C 12,9 km/h (3 Bft) 100,00 %
09.08.2016 20:34 17,3 C 91 % 1016,7 hPa 0,0 l/m 6,6 km/h (2 Bft) W-SW 258 0 min 0,000 mm 0,0 UV-I 0 W/m 15,8 C 17,2 C 11,3 km/h (2 Bft) 100,00 %
09.08.2016 20:36 17,3 C 91 % 1016,7 hPa 0,0 l/m 2,8 km/h (1 Bft) W 270 0 min 0,000 mm 0,0 UV-I 0 W/m 15,8 C 17,3 C 6,4 km/h (2 Bft) 100,00 %
09.08.2016 20:38 17,3 C 91 % 1016,8 hPa 0,0 l/m 3,2 km/h (1 Bft) W-NW 300 0 min 0,000 mm 0,0 UV-I 0 W/m 15,8 C 17,3 C 16,1 km/h (3 Bft) 100,00 %
09.08.2016 20:40 17,2 C 91 % 1016,8 hPa 0,0 l/m 4,0 km/h (1 Bft) W-SW 245 0 min 0,000 mm 0,0 UV-I 0 W/m 15,7 C 17,2 C 12,9 km/h (3 Bft) 100,00 %
09.08.2016 20:42 17,1 C 90 % 1016,8 hPa 0,0 l/m 1,0 km/h (0 Bft) W-SW 244 0 min 0,000 mm 0,0 UV-I 0 W/m 15,4 C 17,1 C 4,8 km/h (1 Bft) 97,87 %
09.08.2016 20:44 17,0 C 89 % 1016,8 hPa 0,0 l/m 2,6 km/h (1 Bft) SW 227 0 min 0,000 mm 0,0 UV-I 0 W/m 15,2 C 17,0 C 4,8 km/h (1 Bft) 100,00 %
09.08.2016 20:46 16,9 C 88 % 1016,9 hPa 0,0 l/m 2,9 km/h (1 Bft) N-NW 333 0 min 0,000 mm 0,0 UV-I 0 W/m 14,9 C 16,9 C 8,0 km/h (2 Bft) 98,00 %
09.08.2016 20:48 16,8 C 87 % 1016,9 hPa 0,0 l/m 1,9 km/h (1 Bft) NW 315 0 min 0,000 mm 0,0 UV-I 0 W/m 14,6 C 16,8 C 4,8 km/h (1 Bft) 100,00 %
09.08.2016 20:50 16,7 C 88 % 1016,9 hPa 0,0 l/m 1,2 km/h (1 Bft) NW 311 0 min 0,000 mm 0,0 UV-I 0 W/m 14,7 C 16,7 C 3,2 km/h (1 Bft) 100,00 %
09.08.2016 20:52 16,7 C 88 % 1016,9 hPa 0,0 l/m 2,8 km/h (1 Bft) W-NW 292 0 min 0,000 mm 0,0 UV-I 0 W/m 14,7 C 16,7 C 6,4 km/h (2 Bft) 97,37 %
09.08.2016 20:54 16,6 C 88 % 1017,0 hPa 0,0 l/m 2,5 km/h (1 Bft) N 350 0 min 0,000 mm 0,0 UV-I 0 W/m 14,6 C 16,6 C 6,4 km/h (2 Bft) 100,00 %
09.08.2016 20:56 16,4 C 88 % 1016,9 hPa 0,0 l/m 1,5 km/h (1 Bft) NW 311 0 min 0,000 mm 0,0 UV-I 0 W/m 14,4 C 16,4 C 3,2 km/h (1 Bft) 98,21 %
09.08.2016 20:58 16,4 C 88 % 1017,0 hPa 0,0 l/m 2,4 km/h (1 Bft) NW 312 0 min 0,000 mm 0,0 UV-I 0 W/m 14,4 C 16,4 C 6,4 km/h (2 Bft) 100,00 %
09.08.2016 21:00 16,3 C 88 % 1017,0 hPa 0,0 l/m 2,4 km/h (1 Bft) W 281 0 min 0,000 mm 0,0 UV-I 0 W/m 14,3 C 16,3 C 8,0 km/h (2 Bft) 100,00 %
09.08.2016 21:02 16,3 C 89 % 1017,1 hPa 0,0 l/m 4,7 km/h (1 Bft) W-NW 283 0 min 0,000 mm 0,0 UV-I 0 W/m 14,5 C 16,3 C 9,7 km/h (2 Bft) 100,00 %
09.08.2016 21:04 16,2 C 89 % 1017,1 hPa 0,0 l/m 4,9 km/h (1 Bft) W 267 0 min 0,000 mm 0,0 UV-I 0 W/m 14,4 C 16,2 C 8,0 km/h (2 Bft) 100,00 %
09.08.2016 21:06 16,2 C 90 % 1017,1 hPa 0,0 l/m 8,2 km/h (2 Bft) W 273 0 min 0,000 mm 0,0 UV-I 0 W/m 14,6 C 15,3 C 16,1 km/h (3 Bft) 100,00 %
09.08.2016 21:08 16,1 C 90 % 1017,2 hPa 0,0 l/m 5,9 km/h (2 Bft) W 261 0 min 0,000 mm 0,0 UV-I 0 W/m 14,5 C 16,1 C 11,3 km/h (2 Bft) 98,11 %
09.08.2016 21:10 16,0 C 91 % 1017,2 hPa 0,2 l/m 6,9 km/h (2 Bft) W 265 0 min 0,000 mm 0,0 UV-I 0 W/m 14,5 C 15,7 C 11,3 km/h (2 Bft) 97,37 %
09.08.2016 21:12 15,9 C 91 % 1017,2 hPa 0,0 l/m 7,8 km/h (2 Bft) W 277 0 min 0,000 mm 0,0 UV-I 0 W/m 14,4 C 15,1 C 11,3 km/h (2 Bft) 98,21 %
09.08.2016 21:14 15,8 C 91 % 1017,3 hPa 0,0 l/m 5,5 km/h (1 Bft) W-SW 254 0 min 0,000 mm 0,0 UV-I 0 W/m 14,3 C 15,8 C 9,7 km/h (2 Bft) 95,45 %
09.08.2016 21:16 15,8 C 92 % 1017,2 hPa 0,2 l/m 6,5 km/h (2 Bft) W 265 0 min 0,000 mm 0,0 UV-I 0 W/m 14,5 C 15,8 C 11,3 km/h (2 Bft) 96,00 %
09.08.2016 21:18 15,7 C 92 % 1017,3 hPa 0,0 l/m 7,8 km/h (2 Bft) W-SW 256 0 min 0,000 mm 0,0 UV-I 0 W/m 14,4 C 14,9 C 14,5 km/h (3 Bft) 97,14 %
09.08.2016 21:20 15,7 C 93 % 1017,3 hPa 0,2 l/m 6,9 km/h (2 Bft) W-SW 240 0 min 0,000 mm 0,0 UV-I 0 W/m 14,6 C 15,4 C 12,9 km/h (3 Bft) 98,31 %
09.08.2016 21:22 15,7 C 93 % 1017,3 hPa 0,2 l/m 4,9 km/h (1 Bft) W 259 0 min 0,000 mm 0,0 UV-I 0 W/m 14,6 C 15,7 C 9,7 km/h (2 Bft) 94,29 %
09.08.2016 21:24 15,7 C 94 % 1017,3 hPa 0,2 l/m 7,8 km/h (2 Bft) W-SW 247 0 min 0,000 mm 0,0 UV-I 0 W/m 14,7 C 14,9 C 14,5 km/h (3 Bft) 98,11 %
09.08.2016 21:26 15,6 C 94 % 1017,4 hPa 0,0 l/m 8,1 km/h (2 Bft) W 261 0 min 0,000 mm 0,0 UV-I 0 W/m 14,6 C 14,7 C 14,5 km/h (3 Bft) 92,45 %
09.08.2016 21:28 15,6 C 94 % 1017,4 hPa 0,2 l/m 5,3 km/h (1 Bft) SW 225 0 min 0,000 mm 0,0 UV-I 0 W/m 14,6 C 15,6 C 11,3 km/h (2 Bft) 95,74 %
09.08.2016 21:30 15,6 C 94 % 1017,4 hPa 0,0 l/m 9,5 km/h (2 Bft) W-SW 251 0 min 0,000 mm 0,0 UV-I 0 W/m 14,6 C 14,0 C 16,1 km/h (3 Bft) 97,44 %
09.08.2016 21:32 15,6 C 94 % 1017,4 hPa 0,2 l/m 9,7 km/h (2 Bft) W-SW 252 0 min 0,000 mm 0,0 UV-I 0 W/m 14,6 C 13,9 C 16,1 km/h (3 Bft) 98,00 %
09.08.2016 21:34 15,6 C 94 % 1017,4 hPa 0,2 l/m 8,2 km/h (2 Bft) W 265 0 min 0,000 mm 0,0 UV-I 0 W/m 14,6 C 14,6 C 12,9 km/h (3 Bft) 97,73 %
09.08.2016 21:36 15,6 C 94 % 1017,4 hPa 0,2 l/m 9,1 km/h (2 Bft) SW 221 0 min 0,000 mm 0,0 UV-I 0 W/m 14,6 C 14,2 C 14,5 km/h (3 Bft) 97,87 %
09.08.2016 21:38 15,6 C 94 % 1017,4 hPa 0,0 l/m 7,9 km/h (2 Bft) SW 236 0 min 0,000 mm 0,0 UV-I 0 W/m 14,6 C 14,8 C 12,9 km/h (3 Bft) 98,11 %
09.08.2016 21:40 15,6 C 95 % 1017,4 hPa 0,2 l/m 8,7 km/h (2 Bft) W-SW 247 0 min 0,000 mm 0,0 UV-I 0 W/m 14,8 C 14,4 C 12,9 km/h (3 Bft) 97,73 %
09.08.2016 21:42 15,6 C 95 % 1017,4 hPa 0,2 l/m 10,0 km/h (2 Bft) W-NW 286 0 min 0,000 mm 0,0 UV-I 0 W/m 14,8 C 13,8 C 14,5 km/h (3 Bft) 94,12 %
09.08.2016 21:44 15,5 C 95 % 1017,4 hPa 0,0 l/m 10,1 km/h (2 Bft) W-SW 248 0 min 0,000 mm 0,0 UV-I 0 W/m 14,7 C 13,6 C 14,5 km/h (3 Bft) 97,56 %
09.08.2016 21:46 15,5 C 95 % 1017,4 hPa 0,2 l/m 7,5 km/h (2 Bft) W-SW 243 0 min 0,000 mm 0,0 UV-I 0 W/m 14,7 C 14,9 C 12,9 km/h (3 Bft) 100,00 %
09.08.2016 21:48 15,5 C 95 % 1017,4 hPa 0,2 l/m 10,2 km/h (2 Bft) W-SW 250 0 min 0,000 mm 0,0 UV-I 0 W/m 14,7 C 13,6 C 16,1 km/h (3 Bft) 97,56 %
09.08.2016 21:50 15,4 C 95 % 1017,5 hPa 0,2 l/m 9,4 km/h (2 Bft) W-SW 255 0 min 0,000 mm 0,0 UV-I 0 W/m 14,6 C 13,8 C 14,5 km/h (3 Bft) 95,74 %
09.08.2016 21:52 15,4 C 95 % 1017,4 hPa 0,0 l/m 10,7 km/h (2 Bft) W-SW 244 0 min 0,000 mm 0,0 UV-I 0 W/m 14,6 C 13,3 C 14,5 km/h (3 Bft) 100,00 %
09.08.2016 21:54 15,4 C 95 % 1017,5 hPa 0,2 l/m 7,1 km/h (2 Bft) W-SW 242 0 min 0,000 mm 0,0 UV-I 0 W/m 14,6 C 15,0 C 14,5 km/h (3 Bft) 98,00 %
09.08.2016 21:56 15,4 C 95 % 1017,5 hPa 0,0 l/m 8,9 km/h (2 Bft) W-SW 237 0 min 0,000 mm 0,0 UV-I 0 W/m 14,6 C 14,1 C 14,5 km/h (3 Bft) 100,00 %
09.08.2016 21:58 15,4 C 95 % 1017,5 hPa 0,2 l/m 8,9 km/h (2 Bft) W 274 0 min 0,000 mm 0,0 UV-I 0 W/m 14,6 C 14,1 C 14,5 km/h (3 Bft) 100,00 %
09.08.2016 22:00 15,4 C 95 % 1017,5 hPa 0,0 l/m 9,7 km/h (2 Bft) W 263 0 min 0,000 mm 0,0 UV-I 0 W/m 14,6 C 13,7 C 12,9 km/h (3 Bft) 97,87 %
09.08.2016 22:02 15,4 C 95 % 1017,5 hPa 0,0 l/m 8,8 km/h (2 Bft) SW 231 0 min 0,000 mm 0,0 UV-I 0 W/m 14,6 C 14,1 C 14,5 km/h (3 Bft) 100,00 %
09.08.2016 22:04 15,3 C 95 % 1017,6 hPa 0,2 l/m 10,7 km/h (2 Bft) W-SW 252 0 min 0,000 mm 0,0 UV-I 0 W/m 14,5 C 13,1 C 16,1 km/h (3 Bft) 100,00 %
09.08.2016 22:06 15,3 C 95 % 1017,6 hPa 0,0 l/m 10,5 km/h (2 Bft) W-SW 254 0 min 0,000 mm 0,0 UV-I 0 W/m 14,5 C 13,2 C 17,7 km/h (3 Bft) 98,18 %
09.08.2016 22:08 15,3 C 95 % 1017,5 hPa 0,0 l/m 10,5 km/h (2 Bft) W-NW 284 0 min 0,000 mm 0,0 UV-I 0 W/m 14,5 C 13,2 C 16,1 km/h (3 Bft) 100,00 %
09.08.2016 22:10 15,3 C 95 % 1017,5 hPa 0,0 l/m 7,6 km/h (2 Bft) SW 232 0 min 0,000 mm 0,0 UV-I 0 W/m 14,5 C 14,6 C 14,5 km/h (3 Bft) 100,00 %
09.08.2016 22:12 15,3 C 95 % 1017,5 hPa 0,2 l/m 6,2 km/h (2 Bft) W 264 0 min 0,000 mm 0,0 UV-I 0 W/m 14,5 C 15,3 C 11,3 km/h (2 Bft) 100,00 %
09.08.2016 22:14 15,2 C 95 % 1017,5 hPa 0,0 l/m 6,7 km/h (2 Bft) W 261 0 min 0,000 mm 0,0 UV-I 0 W/m 14,4 C 15,0 C 14,5 km/h (3 Bft) 97,87 %
09.08.2016 22:16 15,2 C 95 % 1017,5 hPa 0,0 l/m 4,5 km/h (1 Bft) SW 223 0 min 0,000 mm 0,0 UV-I 0 W/m 14,4 C 15,2 C 9,7 km/h (2 Bft) 100,00 %
09.08.2016 22:18 15,2 C 95 % 1017,5 hPa 0,0 l/m 5,7 km/h (1 Bft) S-SW 204 0 min 0,000 mm 0,0 UV-I 0 W/m 14,4 C 15,2 C 11,3 km/h (2 Bft) 100,00 %
09.08.2016 22:20 15,2 C 95 % 1017,5 hPa 0,0 l/m 6,0 km/h (2 Bft) SW 235 0 min 0,000 mm 0,0 UV-I 0 W/m 14,4 C 15,2 C 11,3 km/h (2 Bft) 96,23 %
09.08.2016 22:22 15,1 C 95 % 1017,5 hPa 0,0 l/m 7,4 km/h (2 Bft) W 275 0 min 0,000 mm 0,0 UV-I 0 W/m 14,3 C 14,5 C 16,1 km/h (3 Bft) 100,00 %
09.08.2016 22:24 15,1 C 95 % 1017,5 hPa 0,0 l/m 8,4 km/h (2 Bft) SW 229 0 min 0,000 mm 0,0 UV-I 0 W/m 14,3 C 14,0 C 12,9 km/h (3 Bft) 96,43 %
09.08.2016 22:26 15,1 C 95 % 1017,6 hPa 0,0 l/m 6,7 km/h (2 Bft) W-SW 243 0 min 0,000 mm 0,0 UV-I 0 W/m 14,3 C 14,9 C 11,3 km/h (2 Bft) 100,00 %
09.08.2016 22:28 15,0 C 95 % 1017,6 hPa 0,2 l/m 8,1 km/h (2 Bft) W-SW 242 0 min 0,000 mm 0,0 UV-I 0 W/m 14,2 C 14,0 C 16,1 km/h (3 Bft) 98,39 %
09.08.2016 22:30 14,9 C 95 % 1017,6 hPa 0,0 l/m 7,6 km/h (2 Bft) W 270 0 min 0,000 mm 0,0 UV-I 0 W/m 14,1 C 14,2 C 17,7 km/h (3 Bft) 100,00 %
09.08.2016 22:32 14,9 C 95 % 1017,6 hPa 0,0 l/m 6,3 km/h (2 Bft) W 263 0 min 0,000 mm 0,0 UV-I 0 W/m 14,1 C 14,9 C 11,3 km/h (2 Bft) 100,00 %
09.08.2016 22:34 14,9 C 95 % 1017,7 hPa 0,0 l/m 5,9 km/h (2 Bft) W 259 0 min 0,000 mm 0,0 UV-I 0 W/m 14,1 C 14,9 C 8,0 km/h (2 Bft) 100,00 %
09.08.2016 22:36 14,9 C 95 % 1017,7 hPa 0,0 l/m 4,9 km/h (1 Bft) W-SW 256 0 min 0,000 mm 0,0 UV-I 0 W/m 14,1 C 14,9 C 11,3 km/h (2 Bft) 98,00 %
09.08.2016 22:38 14,8 C 95 % 1017,7 hPa 0,0 l/m 9,4 km/h (2 Bft) W-SW 246 0 min 0,000 mm 0,0 UV-I 0 W/m 14,0 C 13,2 C 16,1 km/h (3 Bft) 100,00 %
09.08.2016 22:40 14,8 C 95 % 1017,7 hPa 0,0 l/m 7,1 km/h (2 Bft) W 263 0 min 0,000 mm 0,0 UV-I 0 W/m 14,0 C 14,4 C 14,5 km/h (3 Bft) 100,00 %
09.08.2016 22:42 14,7 C 95 % 1017,7 hPa 0,2 l/m 7,4 km/h (2 Bft) W 260 0 min 0,000 mm 0,0 UV-I 0 W/m 13,9 C 14,1 C 12,9 km/h (3 Bft) 100,00 %
09.08.2016 22:44 14,7 C 95 % 1017,7 hPa 0,0 l/m 9,9 km/h (2 Bft) W 261 0 min 0,000 mm 0,0 UV-I 0 W/m 13,9 C 12,8 C 14,5 km/h (3 Bft) 100,00 %
09.08.2016 22:46 14,7 C 95 % 1017,7 hPa 0,0 l/m 6,1 km/h (2 Bft) W-SW 250 0 min 0,000 mm 0,0 UV-I 0 W/m 13,9 C 14,7 C 9,7 km/h (2 Bft) 100,00 %
09.08.2016 22:48 14,6 C 95 % 1017,7 hPa 0,0 l/m 6,4 km/h (2 Bft) W-SW 257 0 min 0,000 mm 0,0 UV-I 0 W/m 13,8 C 14,6 C 14,5 km/h (3 Bft) 100,00 %
09.08.2016 22:50 14,6 C 95 % 1017,7 hPa 0,0 l/m 6,0 km/h (2 Bft) SW 235 0 min 0,000 mm 0,0 UV-I 0 W/m 13,8 C 14,6 C 11,3 km/h (2 Bft) 100,00 %
09.08.2016 22:52 14,6 C 95 % 1017,6 hPa 0,0 l/m 6,5 km/h (2 Bft) W-SW 255 0 min 0,000 mm 0,0 UV-I 0 W/m 13,8 C 14,6 C 9,7 km/h (2 Bft) 100,00 %
09.08.2016 22:54 14,6 C 95 % 1017,6 hPa 0,0 l/m 6,6 km/h (2 Bft) SW 234 0 min 0,000 mm 0,0 UV-I 0 W/m 13,8 C 14,5 C 11,3 km/h (2 Bft) 100,00 %
09.08.2016 22:56 14,5 C 95 % 1017,6 hPa 0,0 l/m 5,8 km/h (2 Bft) W 274 0 min 0,000 mm 0,0 UV-I 0 W/m 13,7 C 14,5 C 12,9 km/h (3 Bft) 98,11 %
09.08.2016 22:58 14,4 C 96 % 1017,7 hPa 0,2 l/m 6,6 km/h (2 Bft) W 259 0 min 0,000 mm 0,0 UV-I 0 W/m 13,8 C 14,3 C 12,9 km/h (3 Bft) 100,00 %
09.08.2016 23:00 14,4 C 96 % 1017,6 hPa 0,0 l/m 6,3 km/h (2 Bft) W 281 0 min 0,000 mm 0,0 UV-I 0 W/m 13,8 C 14,4 C 11,3 km/h (2 Bft) 100,00 %
09.08.2016 23:02 14,4 C 96 % 1017,7 hPa 0,0 l/m 5,1 km/h (1 Bft) W-SW 255 0 min 0,000 mm 0,0 UV-I 0 W/m 13,8 C 14,4 C 8,0 km/h (2 Bft) 98,00 %
09.08.2016 23:04 14,4 C 96 % 1017,7 hPa 0,2 l/m 7,5 km/h (2 Bft) SW 236 0 min 0,000 mm 0,0 UV-I 0 W/m 13,8 C 13,8 C 11,3 km/h (2 Bft) 95,74 %
09.08.2016 23:06 14,3 C 96 % 1017,7 hPa 0,0 l/m 8,2 km/h (2 Bft) W-NW 299 0 min 0,000 mm 0,0 UV-I 0 W/m 13,7 C 13,3 C 12,9 km/h (3 Bft) 100,00 %
09.08.2016 23:08 14,3 C 96 % 1017,7 hPa 0,0 l/m 8,3 km/h (2 Bft) W 274 0 min 0,000 mm 0,0 UV-I 0 W/m 13,7 C 13,2 C 14,5 km/h (3 Bft) 97,56 %
09.08.2016 23:10 14,3 C 96 % 1017,7 hPa 0,0 l/m 9,7 km/h (2 Bft) W-NW 285 0 min 0,000 mm 0,0 UV-I 0 W/m 13,7 C 12,5 C 16,1 km/h (3 Bft) 98,21 %
09.08.2016 23:12 14,3 C 96 % 1017,7 hPa 0,0 l/m 7,1 km/h (2 Bft) W-SW 253 0 min 0,000 mm 0,0 UV-I 0 W/m 13,7 C 13,9 C 12,9 km/h (3 Bft) 95,12 %
09.08.2016 23:14 14,3 C 96 % 1017,7 hPa 0,2 l/m 6,6 km/h (2 Bft) W-SW 246 0 min 0,000 mm 0,0 UV-I 0 W/m 13,7 C 14,2 C 11,3 km/h (2 Bft) 97,87 %
09.08.2016 23:16 14,2 C 96 % 1017,8 hPa 0,0 l/m 8,9 km/h (2 Bft) W-SW 246 0 min 0,000 mm 0,0 UV-I 0 W/m 13,6 C 12,8 C 14,5 km/h (3 Bft) 97,87 %
09.08.2016 23:18 14,2 C 96 % 1017,8 hPa 0,2 l/m 6,7 km/h (2 Bft) W-SW 254 0 min 0,000 mm 0,0 UV-I 0 W/m 13,6 C 14,0 C 12,9 km/h (3 Bft) 97,87 %
09.08.2016 23:20 14,2 C 96 % 1017,7 hPa 0,0 l/m 9,1 km/h (2 Bft) W-NW 300 0 min 0,000 mm 0,0 UV-I 0 W/m 13,6 C 12,7 C 12,9 km/h (3 Bft) 98,00 %
09.08.2016 23:22 14,2 C 96 % 1017,7 hPa 0,0 l/m 7,9 km/h (2 Bft) W 265 0 min 0,000 mm 0,0 UV-I 0 W/m 13,6 C 13,3 C 16,1 km/h (3 Bft) 94,87 %
09.08.2016 23:24 14,2 C 96 % 1017,7 hPa 0,0 l/m 5,6 km/h (1 Bft) W 266 0 min 0,000 mm 0,0 UV-I 0 W/m 13,6 C 14,2 C 11,3 km/h (2 Bft) 98,18 %
09.08.2016 23:26 14,1 C 96 % 1017,7 hPa 0,2 l/m 8,7 km/h (2 Bft) W-SW 253 0 min 0,000 mm 0,0 UV-I 0 W/m 13,5 C 12,8 C 16,1 km/h (3 Bft) 97,62 %
09.08.2016 23:28 14,1 C 96 % 1017,7 hPa 0,0 l/m 6,8 km/h (2 Bft) W 267 0 min 0,000 mm 0,0 UV-I 0 W/m 13,5 C 13,9 C 12,9 km/h (3 Bft) 95,74 %
09.08.2016 23:30 14,1 C 96 % 1017,7 hPa 0,0 l/m 8,7 km/h (2 Bft) W-SW 240 0 min 0,000 mm 0,0 UV-I 0 W/m 13,5 C 12,8 C 14,5 km/h (3 Bft) 95,74 %
09.08.2016 23:32 14,1 C 96 % 1017,7 hPa 0,2 l/m 7,7 km/h (2 Bft) W-SW 250 0 min 0,000 mm 0,0 UV-I 0 W/m 13,5 C 13,3 C 12,9 km/h (3 Bft) 96,23 %
09.08.2016 23:34 14,1 C 96 % 1017,8 hPa 0,0 l/m 6,5 km/h (2 Bft) W 265 0 min 0,000 mm 0,0 UV-I 0 W/m 13,5 C 14,1 C 12,9 km/h (3 Bft) 97,56 %
09.08.2016 23:36 14,0 C 96 % 1017,8 hPa 0,0 l/m 9,6 km/h (2 Bft) SW 236 0 min 0,000 mm 0,0 UV-I 0 W/m 13,4 C 12,2 C 16,1 km/h (3 Bft) 98,11 %
09.08.2016 23:38 14,0 C 96 % 1017,8 hPa 0,2 l/m 9,8 km/h (2 Bft) W-SW 258 0 min 0,000 mm 0,0 UV-I 0 W/m 13,4 C 12,1 C 17,7 km/h (3 Bft) 97,56 %
09.08.2016 23:40 14,0 C 96 % 1017,8 hPa 0,0 l/m 8,0 km/h (2 Bft) W 266 0 min 0,000 mm 0,0 UV-I 0 W/m 13,4 C 13,1 C 14,5 km/h (3 Bft) 96,00 %
09.08.2016 23:42 13,9 C 96 % 1017,8 hPa 0,0 l/m 7,5 km/h (2 Bft) W-SW 244 0 min 0,000 mm 0,0 UV-I 0 W/m 13,3 C 13,2 C 12,9 km/h (3 Bft) 94,00 %
09.08.2016 23:44 13,9 C 96 % 1017,8 hPa 0,0 l/m 9,1 km/h (2 Bft) W-SW 238 0 min 0,000 mm 0,0 UV-I 0 W/m 13,3 C 12,4 C 12,9 km/h (3 Bft) 100,00 %
09.08.2016 23:46 13,9 C 96 % 1017,8 hPa 0,2 l/m 11,0 km/h (2 Bft) W 263 0 min 0,000 mm 0,0 UV-I 0 W/m 13,3 C 11,4 C 16,1 km/h (3 Bft) 98,21 %
09.08.2016 23:48 13,9 C 96 % 1017,8 hPa 0,0 l/m 9,3 km/h (2 Bft) W-SW 246 0 min 0,000 mm 0,0 UV-I 0 W/m 13,3 C 12,2 C 14,5 km/h (3 Bft) 100,00 %
09.08.2016 23:50 13,9 C 96 % 1017,8 hPa 0,0 l/m 10,6 km/h (2 Bft) W-SW 258 0 min 0,000 mm 0,0 UV-I 0 W/m 13,3 C 11,6 C 16,1 km/h (3 Bft) 100,00 %
09.08.2016 23:52 13,9 C 96 % 1017,9 hPa 0,0 l/m 12,7 km/h (3 Bft) W-SW 237 0 min 0,000 mm 0,0 UV-I 0 W/m 13,3 C 10,7 C 19,3 km/h (3 Bft) 100,00 %
09.08.2016 23:54 13,9 C 96 % 1017,9 hPa 0,0 l/m 10,7 km/h (2 Bft) SW 229 0 min 0,000 mm 0,0 UV-I 0 W/m 13,3 C 11,6 C 16,1 km/h (3 Bft) 100,00 %
09.08.2016 23:56 13,9 C 96 % 1017,9 hPa 0,0 l/m 8,6 km/h (2 Bft) W-SW 254 0 min 0,000 mm 0,0 UV-I 0 W/m 13,3 C 12,6 C 14,5 km/h (3 Bft) 100,00 %
09.08.2016 23:58 13,9 C 96 % 1017,9 hPa 0,2 l/m 11,9 km/h (2 Bft) W-SW 258 0 min 0,000 mm 0,0 UV-I 0 W/m 13,3 C 11,0 C 16,1 km/h (3 Bft) 98,00 %
_ Min-Zeit 23:42 00:00 05:28 - 05:32 - - - - - - 23:42 23:52 06:12 04:50
Minimum _ 13,9 C 81 % 1015,8 hPa - 0,0 km/h (0 Bft) - - - - - - 13,3 C 10,7 C 0,0 km/h (0 Bft) 91,49 %
_ Max-Zeit 08:30 06:42 23:52 03:38 13:04 - - 07:00 09:00 12:20 08:36 08:56 08:30 09:26 00:02
Maximum _ 19,4 C 96 % 1017,9 hPa 0,2 l/m 14,3 km/h
W-SW (3 Bft)
- - 2 min 0,153 mm 2,2 UV-I 388 W/m 17,5 C 19,4 C 22,5 km/h
W-NW (4 Bft)
100,00 %
Durchschnitt _ 17,2 C 90 % 1016,9 hPa #10,8 l/m 5,6 km/h (1 Bft) W-SW - #1:28 h #1,194 mm 1,0 UV-I 126 W/m 15,6 C 16,8 C 9,4 km/h (2 Bft) 98,70 %